Time,TemperatureF,DewpointF,PressureIn,WindDirection,WindDirectionDegrees,WindSpeedMPH,WindSpeedGustMPH,Humidity,HourlyPrecipIn,Conditions,Clouds,dailyrainin,SolarRadiationWatts/m^2,SoftwareType,DateUTC
2013-02-13 00:00:00,45.4,26.9,29.95,SW,221,0.0,3.0,48,0.00,,SKC,0.00,0.00,VWS V14.01,2013-02-13 05:00:00,
2013-02-13 00:05:00,45.4,26.4,29.94,SW,221,0.0,0.0,47,0.00,,SKC,0.00,0.00,VWS V14.01,2013-02-13 05:05:00,
2013-02-13 00:10:00,45.3,27.3,29.94,SW,221,0.0,0.0,49,0.00,,SKC,0.00,0.00,VWS V14.01,2013-02-13 05:10:00,
2013-02-13 00:15:00,45.1,27.1,29.94,SW,221,0.0,1.0,49,0.00,,SKC,0.00,0.00,VWS V14.01,2013-02-13 05:15:00,
2013-02-13 00:20:00,45.0,27.0,29.94,SW,221,0.0,1.0,49,0.00,,SKC,0.00,0.00,VWS V14.01,2013-02-13 05:20:00,
2013-02-13 00:21:00,45.0,27.0,29.94,SW,221,0.0,1.0,49,0.00,,SKC,0.00,0.00,VWS V14.01,2013-02-13 05:21:00,
2013-02-13 00:25:00,44.8,27.3,29.94,WNW,288,2.0,3.0,50,0.00,,SKC,0.00,0.00,VWS V14.01,2013-02-13 05:25:00,
2013-02-13 00:26:00,44.7,27.2,29.94,WNW,299,3.0,3.0,50,0.00,,SKC,0.00,0.00,VWS V14.01,2013-02-13 05:26:00,
2013-02-13 00:30:00,44.5,27.5,29.93,NW,306,3.0,3.0,51,0.00,,SKC,0.00,0.00,VWS V14.01,2013-02-13 05:30:00,
2013-02-13 00:31:00,44.4,27.4,29.93,NW,306,2.0,3.0,51,0.00,,SKC,0.00,0.00,VWS V14.01,2013-02-13 05:31:00,
2013-02-13 00:35:00,44.3,27.3,29.93,NW,306,2.0,3.0,51,0.00,,SKC,0.00,0.00,VWS V14.01,2013-02-13 05:35:00,
2013-02-13 00:36:00,44.2,27.7,29.93,NW,306,3.0,3.0,52,0.00,,SKC,0.00,0.00,VWS V14.01,2013-02-13 05:36:00,
2013-02-13 00:41:00,44.1,26.2,29.92,NW,317,2.0,5.0,49,0.00,,SKC,0.00,0.00,VWS V14.01,2013-02-13 05:41:00,
2013-02-13 00:46:00,44.2,26.3,29.92,NW,317,2.0,5.0,49,0.00,,SKC,0.00,0.00,VWS V14.01,2013-02-13 05:46:00,
2013-02-13 00:51:00,44.4,26.5,29.91,NW,317,1.0,5.0,49,0.00,,SKC,0.00,0.00,VWS V14.01,2013-02-13 05:51:00,
2013-02-13 00:56:00,44.5,26.0,29.91,NW,317,1.0,5.0,48,0.00,,SKC,0.00,0.00,VWS V14.01,2013-02-13 05:56:00,
2013-02-13 00:57:00,44.5,26.0,29.91,NW,317,1.0,5.0,48,0.00,,SKC,0.00,0.00,VWS V14.01,2013-02-13 05:57:00,
2013-02-13 01:01:00,44.5,27.0,29.91,NW,317,2.0,5.0,50,0.00,,SKC,0.00,0.00,VWS V14.01,2013-02-13 06:01:00,
2013-02-13 01:02:00,44.4,26.9,29.91,NW,317,1.0,2.0,50,0.00,,SKC,0.00,0.00,VWS V14.01,2013-02-13 06:02:00,
2013-02-13 01:06:00,44.4,26.9,29.91,NW,317,1.0,3.0,50,0.00,,SKC,0.00,0.00,VWS V14.01,2013-02-13 06:06:00,
2013-02-13 01:07:00,44.4,26.9,29.91,NW,317,2.0,3.0,50,0.00,,SKC,0.00,0.00,VWS V14.01,2013-02-13 06:07:00,
2013-02-13 01:11:00,44.3,26.4,29.90,NW,317,0.0,3.0,49,0.00,,SKC,0.00,0.00,VWS V14.01,2013-02-13 06:11:00,
2013-02-13 01:12:00,44.3,26.4,29.90,NW,317,0.0,3.0,49,0.00,,SKC,0.00,0.00,VWS V14.01,2013-02-13 06:12:00,
2013-02-13 01:16:00,44.3,27.3,29.91,NW,317,0.0,3.0,51,0.00,,SKC,0.00,0.00,VWS V14.01,2013-02-13 06:16:00,
2013-02-13 01:17:00,44.3,27.8,29.91,NW,317,0.0,3.0,52,0.00,,SKC,0.00,0.00,VWS V14.01,2013-02-13 06:17:00,
2013-02-13 01:21:00,43.9,28.8,29.91,NW,317,0.0,3.0,55,0.00,,SKC,0.00,0.00,VWS V14.01,2013-02-13 06:21:00,
2013-02-13 01:22:00,43.9,28.4,29.91,NW,317,1.0,3.0,54,0.00,,SKC,0.00,0.00,VWS V14.01,2013-02-13 06:22:00,
2013-02-13 01:26:00,43.6,27.1,29.91,NW,317,0.0,4.0,52,0.00,,SKC,0.00,0.00,VWS V14.01,2013-02-13 06:26:00,
2013-02-13 01:27:00,43.6,27.1,29.91,NW,317,3.0,4.0,52,0.00,,SKC,0.00,0.00,VWS V14.01,2013-02-13 06:27:00,
2013-02-13 01:32:00,44.0,27.0,29.91,South,178,0.0,2.0,51,0.00,,SKC,0.00,0.00,VWS V14.01,2013-02-13 06:32:00,
2013-02-13 01:33:00,44.2,26.8,29.91,South,178,0.0,2.0,50,0.00,,SKC,0.00,0.00,VWS V14.01,2013-02-13 06:33:00,
2013-02-13 01:37:00,44.4,27.4,29.91,South,175,1.0,2.0,51,0.00,,SKC,0.00,0.00,VWS V14.01,2013-02-13 06:37:00,
2013-02-13 01:38:00,44.4,27.9,29.91,South,175,0.0,2.0,52,0.00,,SKC,0.00,0.00,VWS V14.01,2013-02-13 06:38:00,
2013-02-13 01:42:00,44.5,28.9,29.91,South,175,0.0,2.0,54,0.00,,SKC,0.00,0.00,VWS V14.01,2013-02-13 06:42:00,
2013-02-13 01:43:00,44.5,28.9,29.91,South,175,0.0,2.0,54,0.00,,SKC,0.00,0.00,VWS V14.01,2013-02-13 06:43:00,
2013-02-13 01:47:00,44.5,29.4,29.90,WSW,237,0.0,3.0,55,0.00,,SKC,0.00,0.00,VWS V14.01,2013-02-13 06:47:00,
2013-02-13 01:48:00,44.5,29.4,29.90,WSW,237,0.0,3.0,55,0.00,,SKC,0.00,0.00,VWS V14.01,2013-02-13 06:48:00,
2013-02-13 01:49:00,44.5,29.4,29.90,WSW,237,0.0,3.0,55,0.00,,SKC,0.00,0.00,VWS V14.01,2013-02-13 06:49:00,
2013-02-13 01:52:00,44.5,29.4,29.90,WSW,237,2.0,3.0,55,0.00,,SKC,0.00,0.00,VWS V14.01,2013-02-13 06:52:00,
2013-02-13 01:53:00,44.5,29.4,29.90,WSW,237,1.0,3.0,55,0.00,,SKC,0.00,0.00,VWS V14.01,2013-02-13 06:53:00,
2013-02-13 01:54:00,44.4,29.3,29.90,WSW,244,1.0,3.0,55,0.00,,SKC,0.00,0.00,VWS V14.01,2013-02-13 06:54:00,
2013-02-13 01:57:00,44.3,29.2,29.89,West,274,1.0,3.0,55,0.00,,SKC,0.00,0.00,VWS V14.01,2013-02-13 06:57:00,
2013-02-13 01:58:00,44.3,29.2,29.89,West,274,1.0,3.0,55,0.00,,SKC,0.00,0.00,VWS V14.01,2013-02-13 06:58:00,
2013-02-13 01:59:00,44.3,29.2,29.88,West,274,1.0,3.0,55,0.00,,SKC,0.00,0.00,VWS V14.01,2013-02-13 06:59:00,
2013-02-13 02:03:00,44.2,28.6,29.88,West,274,0.0,2.0,54,0.00,,SKC,0.00,0.00,VWS V14.01,2013-02-13 07:03:00,
2013-02-13 02:05:00,44.2,28.6,29.88,West,274,0.0,2.0,54,0.00,,SKC,0.00,0.00,VWS V14.01,2013-02-13 07:05:00,
2013-02-13 02:08:00,44.1,29.0,29.89,West,274,0.0,2.0,55,0.00,,SKC,0.00,0.00,VWS V14.01,2013-02-13 07:08:00,
2013-02-13 02:09:00,44.1,29.0,29.89,West,274,0.0,2.0,55,0.00,,SKC,0.00,0.00,VWS V14.01,2013-02-13 07:09:00,
2013-02-13 02:10:00,44.1,29.0,29.89,West,274,0.0,2.0,55,0.00,,SKC,0.00,0.00,VWS V14.01,2013-02-13 07:10:00,
2013-02-13 02:13:00,44.1,29.4,29.88,West,274,0.0,2.0,56,0.00,,SKC,0.00,0.00,VWS V14.01,2013-02-13 07:13:00,
2013-02-13 02:14:00,44.1,29.4,29.88,West,274,0.0,2.0,56,0.00,,SKC,0.00,0.00,VWS V14.01,2013-02-13 07:14:00,
2013-02-13 02:15:00,44.1,29.0,29.89,West,274,0.0,2.0,55,0.00,,SKC,0.00,0.00,VWS V14.01,2013-02-13 07:15:00,
2013-02-13 02:18:00,44.1,29.4,29.89,West,274,0.0,2.0,56,0.00,,SKC,0.00,0.00,VWS V14.01,2013-02-13 07:18:00,
2013-02-13 02:19:00,44.1,29.4,29.90,West,274,0.0,2.0,56,0.00,,SKC,0.00,0.00,VWS V14.01,2013-02-13 07:19:00,
2013-02-13 02:20:00,44.1,29.4,29.90,West,274,0.0,2.0,56,0.00,,SKC,0.00,0.00,VWS V14.01,2013-02-13 07:20:00,
2013-02-13 02:23:00,44.0,29.3,29.89,West,274,0.0,2.0,56,0.00,,SKC,0.00,0.00,VWS V14.01,2013-02-13 07:23:00,
2013-02-13 02:24:00,44.0,29.3,29.89,West,274,0.0,2.0,56,0.00,,SKC,0.00,0.00,VWS V14.01,2013-02-13 07:24:00,
2013-02-13 02:26:00,44.0,29.3,29.89,West,274,0.0,2.0,56,0.00,,SKC,0.00,0.00,VWS V14.01,2013-02-13 07:26:00,
2013-02-13 02:28:00,44.0,29.8,29.89,West,274,0.0,2.0,57,0.00,,SKC,0.00,0.00,VWS V14.01,2013-02-13 07:28:00,
2013-02-13 02:29:00,44.0,29.8,29.89,West,274,0.0,2.0,57,0.00,,SKC,0.00,0.00,VWS V14.01,2013-02-13 07:29:00,
2013-02-13 02:30:00,44.0,29.8,29.89,West,274,0.0,2.0,57,0.00,,SKC,0.00,0.00,VWS V14.01,2013-02-13 07:30:00,
2013-02-13 02:31:00,44.0,29.3,29.89,West,274,0.0,2.0,56,0.00,,SKC,0.00,0.00,VWS V14.01,2013-02-13 07:31:00,
2013-02-13 02:33:00,43.9,29.2,29.89,West,274,0.0,0.0,56,0.00,,SKC,0.00,0.00,VWS V14.01,2013-02-13 07:33:00,
2013-02-13 02:34:00,43.9,29.7,29.89,West,274,0.0,0.0,57,0.00,,SKC,0.00,0.00,VWS V14.01,2013-02-13 07:34:00,
2013-02-13 02:35:00,43.9,29.7,29.89,West,274,0.0,0.0,57,0.00,,SKC,0.00,0.00,VWS V14.01,2013-02-13 07:35:00,
2013-02-13 02:36:00,43.9,29.7,29.89,West,274,0.0,0.0,57,0.00,,SKC,0.00,0.00,VWS V14.01,2013-02-13 07:36:00,
2013-02-13 02:39:00,43.8,29.6,29.88,West,274,1.0,2.0,57,0.00,,SKC,0.00,0.00,VWS V14.01,2013-02-13 07:39:00,
2013-02-13 02:40:00,43.8,29.6,29.88,West,274,0.0,2.0,57,0.00,,SKC,0.00,0.00,VWS V14.01,2013-02-13 07:40:00,
2013-02-13 02:41:00,43.8,30.0,29.88,West,274,0.0,2.0,58,0.00,,SKC,0.00,0.00,VWS V14.01,2013-02-13 07:41:00,
2013-02-13 02:44:00,43.8,30.0,29.88,West,274,0.0,2.0,58,0.00,,SKC,0.00,0.00,VWS V14.01,2013-02-13 07:44:00,
2013-02-13 02:45:00,43.8,30.0,29.88,West,274,0.0,2.0,58,0.00,,SKC,0.00,0.00,VWS V14.01,2013-02-13 07:45:00,
2013-02-13 02:47:00,43.8,30.0,29.88,West,274,0.0,2.0,58,0.00,,SKC,0.00,0.00,VWS V14.01,2013-02-13 07:47:00,
2013-02-13 02:49:00,43.8,30.0,29.88,West,274,0.0,2.0,58,0.00,,SKC,0.00,0.00,VWS V14.01,2013-02-13 07:49:00,
2013-02-13 02:50:00,43.8,30.0,29.88,West,274,0.0,2.0,58,0.00,,SKC,0.00,0.00,VWS V14.01,2013-02-13 07:50:00,
2013-02-13 02:52:00,43.8,30.0,29.88,West,274,0.0,2.0,58,0.00,,SKC,0.00,0.00,VWS V14.01,2013-02-13 07:52:00,
2013-02-13 02:54:00,43.8,30.0,29.88,West,274,0.0,2.0,58,0.00,,SKC,0.00,0.00,VWS V14.01,2013-02-13 07:54:00,
2013-02-13 02:55:00,43.8,30.0,29.88,West,274,0.0,2.0,58,0.00,,SKC,0.00,0.00,VWS V14.01,2013-02-13 07:55:00,
2013-02-13 02:57:00,43.8,30.4,29.88,West,274,0.0,2.0,59,0.00,,SKC,0.00,0.00,VWS V14.01,2013-02-13 07:57:00,
2013-02-13 02:59:00,43.8,30.4,29.88,West,274,1.0,2.0,59,0.00,,SKC,0.00,0.00,VWS V14.01,2013-02-13 07:59:00,
2013-02-13 03:00:00,43.8,30.4,29.88,West,274,1.0,2.0,59,0.00,,SKC,0.00,0.00,VWS V14.01,2013-02-13 08:00:00,
2013-02-13 03:01:00,43.8,30.4,29.88,West,274,0.0,2.0,59,0.00,,SKC,0.00,0.00,VWS V14.01,2013-02-13 08:01:00,
2013-02-13 03:03:00,43.7,30.3,29.88,West,274,0.0,1.0,59,0.00,,SKC,0.00,0.00,VWS V14.01,2013-02-13 08:03:00,
2013-02-13 03:04:00,43.7,30.7,29.88,West,274,0.0,1.0,60,0.00,,SKC,0.00,0.00,VWS V14.01,2013-02-13 08:04:00,
2013-02-13 03:05:00,43.7,30.7,29.88,West,274,0.0,1.0,60,0.00,,SKC,0.00,0.00,VWS V14.01,2013-02-13 08:05:00,
2013-02-13 03:06:00,43.7,30.7,29.88,West,274,0.0,1.0,60,0.00,,SKC,0.00,0.00,VWS V14.01,2013-02-13 08:06:00,
2013-02-13 03:08:00,43.6,30.6,29.88,West,274,0.0,1.0,60,0.00,,SKC,0.00,0.00,VWS V14.01,2013-02-13 08:08:00,
2013-02-13 03:10:00,43.6,30.6,29.88,West,274,0.0,1.0,60,0.00,,SKC,0.00,0.00,VWS V14.01,2013-02-13 08:10:00,
2013-02-13 03:11:00,43.6,30.6,29.88,West,274,0.0,1.0,60,0.00,,SKC,0.00,0.00,VWS V14.01,2013-02-13 08:11:00,
2013-02-13 03:13:00,43.6,31.0,29.88,West,274,0.0,1.0,61,0.00,,SKC,0.00,0.00,VWS V14.01,2013-02-13 08:13:00,
2013-02-13 03:15:00,43.6,31.0,29.88,West,274,0.0,1.0,61,0.00,,SKC,0.00,0.00,VWS V14.01,2013-02-13 08:15:00,
2013-02-13 03:16:00,43.6,31.0,29.88,West,274,0.0,1.0,61,0.00,,SKC,0.00,0.00,VWS V14.01,2013-02-13 08:16:00,
2013-02-13 03:18:00,43.6,31.0,29.88,West,274,0.0,1.0,61,0.00,,SKC,0.00,0.00,VWS V14.01,2013-02-13 08:18:00,
2013-02-13 03:20:00,43.5,31.0,29.88,West,274,0.0,1.0,61,0.00,,SKC,0.00,0.00,VWS V14.01,2013-02-13 08:20:00,
2013-02-13 03:21:00,43.5,31.0,29.88,West,274,1.0,1.0,61,0.00,,SKC,0.00,0.00,VWS V14.01,2013-02-13 08:21:00,
2013-02-13 03:23:00,43.5,31.4,29.88,West,274,1.0,1.0,62,0.00,,SKC,0.00,0.00,VWS V14.01,2013-02-13 08:23:00,
2013-02-13 03:25:00,43.5,31.0,29.87,West,274,0.0,1.0,61,0.00,,SKC,0.00,0.00,VWS V14.01,2013-02-13 08:25:00,
2013-02-13 03:26:00,43.5,31.0,29.87,West,274,2.0,2.0,61,0.00,,SKC,0.00,0.00,VWS V14.01,2013-02-13 08:26:00,
2013-02-13 06:00:00,42.9,34.2,29.82,West,270,0.0,2.0,71,0.00,,SKC,0.00,0.00,VWS V14.01,2013-02-13 11:00:00,
2013-02-13 06:45:00,43.0,34.6,29.81,West,274,2.0,2.0,72,0.00,,SKC,0.00,0.00,VWS V14.01,2013-02-13 11:45:00,
2013-02-13 06:46:00,43.0,34.6,29.81,West,274,2.0,2.0,72,0.00,,SKC,0.00,0.00,VWS V14.01,2013-02-13 11:46:00,
2013-02-13 06:50:00,42.7,35.0,29.81,West,274,0.0,3.0,74,0.00,,SKC,0.00,0.00,VWS V14.01,2013-02-13 11:50:00,
2013-02-13 06:51:00,42.6,34.9,29.81,West,274,0.0,3.0,74,0.00,,SKC,0.00,0.00,VWS V14.01,2013-02-13 11:51:00,
2013-02-13 06:56:00,42.5,35.2,29.81,West,274,0.0,3.0,75,0.00,,SKC,0.00,0.00,VWS V14.01,2013-02-13 11:56:00,
2013-02-13 06:57:00,42.5,34.8,29.81,West,274,0.0,3.0,74,0.00,,SKC,0.00,0.00,VWS V14.01,2013-02-13 11:57:00,
2013-02-13 07:01:00,42.5,34.8,29.81,West,274,2.0,2.0,74,0.00,,SKC,0.00,0.00,VWS V14.01,2013-02-13 12:01:00,
2013-02-13 07:02:00,42.5,34.5,29.81,West,274,0.0,2.0,73,0.00,,SKC,0.00,0.00,VWS V14.01,2013-02-13 12:02:00,
2013-02-13 07:06:00,42.4,34.7,29.82,West,274,0.0,2.0,74,0.00,,SKC,0.00,0.00,VWS V14.01,2013-02-13 12:06:00,
2013-02-13 07:07:00,42.4,34.4,29.82,West,274,0.0,2.0,73,0.00,,SKC,0.00,0.00,VWS V14.01,2013-02-13 12:07:00,
2013-02-13 07:11:00,42.4,34.4,29.82,West,274,0.0,2.0,73,0.00,,SKC,0.00,0.00,VWS V14.01,2013-02-13 12:11:00,
2013-02-13 07:12:00,42.4,34.4,29.82,West,274,1.0,2.0,73,0.00,,SKC,0.00,0.00,VWS V14.01,2013-02-13 12:12:00,
2013-02-13 07:16:00,42.4,35.0,29.81,West,274,0.0,2.0,75,0.00,,SKC,0.00,9.00,VWS V14.01,2013-02-13 12:16:00,
2013-02-13 07:18:00,42.3,35.0,29.81,West,274,0.0,2.0,75,0.00,,SKC,0.00,11.00,VWS V14.01,2013-02-13 12:18:00,
2013-02-13 07:21:00,42.3,34.6,29.81,West,274,0.0,2.0,74,0.00,,SKC,0.00,12.00,VWS V14.01,2013-02-13 12:21:00,
2013-02-13 07:22:00,42.3,34.6,29.81,West,274,0.0,2.0,74,0.00,,SKC,0.00,12.00,VWS V14.01,2013-02-13 12:22:00,
2013-02-13 07:23:00,42.4,34.7,29.81,West,274,2.0,3.0,74,0.00,,SKC,0.00,14.00,VWS V14.01,2013-02-13 12:23:00,
2013-02-13 07:26:00,42.3,35.6,29.80,West,274,2.0,3.0,77,0.00,,SKC,0.00,18.00,VWS V14.01,2013-02-13 12:26:00,
2013-02-13 07:27:00,42.3,35.6,29.80,West,274,2.0,3.0,77,0.00,,SKC,0.00,18.00,VWS V14.01,2013-02-13 12:27:00,
2013-02-13 07:28:00,42.3,35.3,29.80,West,274,0.0,3.0,76,0.00,,SKC,0.00,19.00,VWS V14.01,2013-02-13 12:28:00,
2013-02-13 07:31:00,42.2,35.8,29.81,NW,319,4.0,4.0,78,0.00,,SKC,0.00,18.00,VWS V14.01,2013-02-13 12:31:00,
2013-02-13 07:32:00,42.2,35.8,29.81,NW,323,3.0,4.0,78,0.00,,SKC,0.00,19.00,VWS V14.01,2013-02-13 12:32:00,
2013-02-13 07:33:00,42.2,35.8,29.81,NW,323,3.0,4.0,78,0.00,,SKC,0.00,19.00,VWS V14.01,2013-02-13 12:33:00,
2013-02-13 07:36:00,42.0,35.7,29.81,NW,323,1.0,4.0,78,0.00,,SKC,0.00,21.00,VWS V14.01,2013-02-13 12:36:00,
2013-02-13 07:37:00,42.0,35.7,29.81,NW,323,1.0,4.0,78,0.00,,SKC,0.00,23.00,VWS V14.01,2013-02-13 12:37:00,
2013-02-13 07:38:00,42.0,35.7,29.81,NW,323,2.0,4.0,78,0.00,,SKC,0.00,23.00,VWS V14.01,2013-02-13 12:38:00,
2013-02-13 07:42:00,42.0,36.0,29.81,NW,323,0.0,4.0,79,0.00,,SKC,0.00,21.00,VWS V14.01,2013-02-13 12:42:00,
2013-02-13 07:43:00,42.0,36.0,29.81,NW,323,1.0,4.0,79,0.00,,SKC,0.00,21.00,VWS V14.01,2013-02-13 12:43:00,
2013-02-13 07:44:00,42.0,36.3,29.81,NW,323,2.0,4.0,80,0.00,,SKC,0.00,25.00,VWS V14.01,2013-02-13 12:44:00,
2013-02-13 07:48:00,41.9,36.2,29.81,NW,323,0.0,4.0,80,0.00,,SKC,0.00,23.00,VWS V14.01,2013-02-13 12:48:00,
2013-02-13 07:49:00,41.9,35.9,29.80,NW,323,0.0,4.0,79,0.00,,SKC,0.00,21.00,VWS V14.01,2013-02-13 12:49:00,
2013-02-13 07:53:00,41.9,36.5,29.80,NW,323,2.0,4.0,81,0.00,,SKC,0.00,25.00,VWS V14.01,2013-02-13 12:53:00,
2013-02-13 07:54:00,41.9,36.8,29.80,SE,126,4.0,4.0,82,0.00,,SKC,0.00,28.00,VWS V14.01,2013-02-13 12:54:00,
2013-02-13 07:58:00,41.7,36.6,29.81,SE,146,3.0,7.0,82,0.00,,SKC,0.00,33.00,VWS V14.01,2013-02-13 12:58:00,
2013-02-13 07:59:00,41.7,36.6,29.81,SE,144,4.0,7.0,82,0.00,,SKC,0.00,37.00,VWS V14.01,2013-02-13 12:59:00,
2013-02-13 08:03:00,41.6,36.2,29.81,SE,133,5.0,7.0,81,0.00,,SKC,0.00,26.00,VWS V14.01,2013-02-13 13:03:00,
2013-02-13 08:04:00,41.7,36.3,29.81,SE,128,2.0,7.0,81,0.00,,SKC,0.00,25.00,VWS V14.01,2013-02-13 13:04:00,
2013-02-13 08:08:00,41.7,36.6,29.82,SE,128,0.0,7.0,82,0.00,,SKC,0.00,37.00,VWS V14.01,2013-02-13 13:08:00,
2013-02-13 08:09:00,41.7,36.6,29.82,SE,128,0.0,7.0,82,0.00,,SKC,0.00,35.00,VWS V14.01,2013-02-13 13:09:00,
2013-02-13 08:13:00,41.9,36.8,29.83,SW,217,2.0,7.0,82,0.00,,SKC,0.00,25.00,VWS V14.01,2013-02-13 13:13:00,
2013-02-13 08:14:00,41.9,36.8,29.83,SW,217,2.0,7.0,82,0.00,,SKC,0.00,18.00,VWS V14.01,2013-02-13 13:14:00,
2013-02-13 08:18:00,42.0,36.9,29.83,SW,221,0.0,7.0,82,0.00,,SKC,0.00,19.00,VWS V14.01,2013-02-13 13:18:00,
2013-02-13 08:19:00,42.0,36.9,29.83,SW,221,0.0,7.0,82,0.00,,SKC,0.00,19.00,VWS V14.01,2013-02-13 13:19:00,
2013-02-13 08:20:00,42.0,36.9,29.83,SW,221,0.0,7.0,82,0.00,,SKC,0.00,18.00,VWS V14.01,2013-02-13 13:20:00,
2013-02-13 08:23:00,42.0,36.9,29.83,SW,221,0.0,7.0,82,0.00,,SKC,0.00,28.00,VWS V14.01,2013-02-13 13:23:00,
2013-02-13 08:24:00,42.0,36.9,29.83,SW,221,0.0,7.0,82,0.00,,SKC,0.00,28.00,VWS V14.01,2013-02-13 13:24:00,
2013-02-13 08:25:00,42.0,36.9,29.83,SW,221,0.0,7.0,82,0.00,,SKC,0.00,32.00,VWS V14.01,2013-02-13 13:25:00,
2013-02-13 08:29:00,42.0,37.2,29.82,South,187,0.0,7.0,83,0.00,,SKC,0.00,40.00,VWS V14.01,2013-02-13 13:29:00,
2013-02-13 08:30:00,42.0,37.2,29.82,South,187,0.0,7.0,83,0.00,,SKC,0.00,44.00,VWS V14.01,2013-02-13 13:30:00,
2013-02-13 08:34:00,42.1,37.6,29.82,South,187,0.0,0.0,84,0.00,,SKC,0.00,60.00,VWS V14.01,2013-02-13 13:34:00,
2013-02-13 08:35:00,42.1,37.6,29.82,South,187,0.0,0.0,84,0.00,,SKC,0.00,76.00,VWS V14.01,2013-02-13 13:35:00,
2013-02-13 08:39:00,42.2,38.0,29.81,South,187,1.0,1.0,85,0.01,,SKC,0.01,84.00,VWS V14.01,2013-02-13 13:39:00,
2013-02-13 08:40:00,42.2,38.3,29.82,South,187,0.0,1.0,86,0.01,,SKC,0.01,98.00,VWS V14.01,2013-02-13 13:40:00,
2013-02-13 08:44:00,42.3,38.4,29.82,South,187,0.0,1.0,86,0.01,,SKC,0.01,74.00,VWS V14.01,2013-02-13 13:44:00,
2013-02-13 08:45:00,42.3,38.4,29.82,South,187,0.0,1.0,86,0.01,,SKC,0.01,76.00,VWS V14.01,2013-02-13 13:45:00,
2013-02-13 08:49:00,42.4,38.8,29.82,South,187,0.0,1.0,87,0.01,,SKC,0.01,88.00,VWS V14.01,2013-02-13 13:49:00,
2013-02-13 08:50:00,42.5,39.2,29.82,South,187,0.0,1.0,88,0.01,,SKC,0.01,83.00,VWS V14.01,2013-02-13 13:50:00,
2013-02-13 08:54:00,42.5,39.2,29.82,South,187,0.0,1.0,88,0.01,,SKC,0.01,53.00,VWS V14.01,2013-02-13 13:54:00,
2013-02-13 08:55:00,42.6,39.3,29.82,South,187,0.0,1.0,88,0.01,,SKC,0.01,46.00,VWS V14.01,2013-02-13 13:55:00,
2013-02-13 08:59:00,42.6,39.3,29.82,South,187,0.0,1.0,88,0.01,,SKC,0.01,56.00,VWS V14.01,2013-02-13 13:59:00,
2013-02-13 09:00:00,42.6,39.3,29.82,South,187,0.0,1.0,88,0.01,,SKC,0.01,53.00,VWS V14.01,2013-02-13 14:00:00,
2013-02-13 09:04:00,42.7,39.7,29.82,South,187,0.0,0.0,89,0.01,,SKC,0.01,49.00,VWS V14.01,2013-02-13 14:04:00,
2013-02-13 09:05:00,42.7,39.7,29.82,South,187,0.0,0.0,89,0.01,,SKC,0.01,49.00,VWS V14.01,2013-02-13 14:05:00,
2013-02-13 09:10:00,42.7,39.7,29.81,South,187,0.0,0.0,89,0.01,,SKC,0.01,47.00,VWS V14.01,2013-02-13 14:10:00,
2013-02-13 09:11:00,42.7,39.7,29.81,South,187,0.0,0.0,89,0.01,,SKC,0.01,47.00,VWS V14.01,2013-02-13 14:11:00,
2013-02-13 09:15:00,42.7,39.7,29.81,South,188,0.0,1.0,89,0.01,,SKC,0.01,40.00,VWS V14.01,2013-02-13 14:15:00,
2013-02-13 09:16:00,42.7,39.7,29.81,South,188,0.0,1.0,89,0.01,,SKC,0.01,46.00,VWS V14.01,2013-02-13 14:16:00,
2013-02-13 09:20:00,42.7,39.7,29.80,South,188,1.0,4.0,89,0.01,,SKC,0.01,77.00,VWS V14.01,2013-02-13 14:20:00,
2013-02-13 09:21:00,42.8,39.8,29.80,South,188,2.0,4.0,89,0.01,,SKC,0.01,60.00,VWS V14.01,2013-02-13 14:21:00,
2013-02-13 09:22:00,42.8,39.8,29.80,South,188,2.0,4.0,89,0.01,,SKC,0.01,54.00,VWS V14.01,2013-02-13 14:22:00,
2013-02-13 09:25:00,42.8,39.8,29.81,South,188,0.0,4.0,89,0.01,,SKC,0.01,58.00,VWS V14.01,2013-02-13 14:25:00,
2013-02-13 09:26:00,42.8,39.8,29.82,South,188,0.0,4.0,89,0.01,,SKC,0.01,46.00,VWS V14.01,2013-02-13 14:26:00,
2013-02-13 09:27:00,42.8,39.8,29.82,South,188,0.0,4.0,89,0.01,,SKC,0.01,39.00,VWS V14.01,2013-02-13 14:27:00,
2013-02-13 09:30:00,42.8,39.8,29.81,South,188,0.0,4.0,89,0.01,,SKC,0.01,49.00,VWS V14.01,2013-02-13 14:30:00,
2013-02-13 09:31:00,42.8,39.8,29.81,South,188,0.0,0.0,89,0.01,,SKC,0.01,47.00,VWS V14.01,2013-02-13 14:31:00,
2013-02-13 09:32:00,42.8,39.8,29.81,South,188,0.0,0.0,89,0.01,,SKC,0.01,49.00,VWS V14.01,2013-02-13 14:32:00,
2013-02-13 09:35:00,42.7,39.4,29.80,South,188,0.0,1.0,88,0.01,,SKC,0.01,51.00,VWS V14.01,2013-02-13 14:35:00,
2013-02-13 09:36:00,42.7,39.4,29.80,South,188,0.0,1.0,88,0.01,,SKC,0.01,63.00,VWS V14.01,2013-02-13 14:36:00,
2013-02-13 09:37:00,42.7,39.4,29.80,South,188,0.0,1.0,88,0.01,,SKC,0.01,65.00,VWS V14.01,2013-02-13 14:37:00,
2013-02-13 09:40:00,42.8,39.8,29.80,South,188,0.0,1.0,89,0.01,,SKC,0.01,54.00,VWS V14.01,2013-02-13 14:40:00,
2013-02-13 09:41:00,42.8,39.8,29.80,South,188,0.0,1.0,89,0.01,,SKC,0.01,58.00,VWS V14.01,2013-02-13 14:41:00,
2013-02-13 09:42:00,42.8,39.8,29.80,South,188,1.0,1.0,89,0.01,,SKC,0.01,69.00,VWS V14.01,2013-02-13 14:42:00,
2013-02-13 09:45:00,42.8,39.5,29.80,South,175,0.0,2.0,88,0.01,,SKC,0.01,76.00,VWS V14.01,2013-02-13 14:45:00,
2013-02-13 09:46:00,42.8,39.5,29.80,South,175,0.0,2.0,88,0.01,,SKC,0.01,54.00,VWS V14.01,2013-02-13 14:46:00,
2013-02-13 09:47:00,42.8,39.8,29.80,South,175,0.0,2.0,89,0.01,,SKC,0.01,40.00,VWS V14.01,2013-02-13 14:47:00,
2013-02-13 09:51:00,42.8,39.8,29.81,South,175,0.0,2.0,89,0.01,,SKC,0.01,28.00,VWS V14.01,2013-02-13 14:51:00,
2013-02-13 09:52:00,42.8,39.8,29.81,South,175,0.0,2.0,89,0.01,,SKC,0.01,54.00,VWS V14.01,2013-02-13 14:52:00,
2013-02-13 09:56:00,42.9,39.9,29.80,South,175,0.0,2.0,89,0.01,,SKC,0.01,54.00,VWS V14.01,2013-02-13 14:56:00,
2013-02-13 09:57:00,42.9,39.9,29.80,South,175,0.0,2.0,89,0.01,,SKC,0.01,51.00,VWS V14.01,2013-02-13 14:57:00,
2013-02-13 09:58:00,42.9,39.9,29.80,South,175,0.0,2.0,89,0.01,,SKC,0.01,51.00,VWS V14.01,2013-02-13 14:58:00,
2013-02-13 10:01:00,42.9,39.9,29.80,South,175,0.0,2.0,89,0.01,,SKC,0.01,72.00,VWS V14.01,2013-02-13 15:01:00,
2013-02-13 10:02:00,42.9,39.9,29.80,South,175,0.0,1.0,89,0.00,,SKC,0.01,86.00,VWS V14.01,2013-02-13 15:02:00,
2013-02-13 10:03:00,42.9,39.9,29.80,South,175,0.0,1.0,89,0.00,,SKC,0.01,86.00,VWS V14.01,2013-02-13 15:03:00,
2013-02-13 10:06:00,43.0,40.3,29.80,East,101,2.0,2.0,90,0.00,,SKC,0.01,79.00,VWS V14.01,2013-02-13 15:06:00,
2013-02-13 10:07:00,43.0,40.3,29.79,East,101,2.0,2.0,90,0.00,,SKC,0.01,81.00,VWS V14.01,2013-02-13 15:07:00,
2013-02-13 10:08:00,43.0,40.3,29.79,East,101,2.0,3.0,90,0.00,,SKC,0.01,84.00,VWS V14.01,2013-02-13 15:08:00,
2013-02-13 10:11:00,43.0,40.3,29.79,East,80,0.0,3.0,90,0.01,,SKC,0.02,109.00,VWS V14.01,2013-02-13 15:11:00,
2013-02-13 10:12:00,43.0,40.3,29.79,East,81,2.0,3.0,90,0.01,,SKC,0.02,100.00,VWS V14.01,2013-02-13 15:12:00,
2013-02-13 10:13:00,43.1,40.4,29.79,East,81,2.0,3.0,90,0.01,,SKC,0.02,111.00,VWS V14.01,2013-02-13 15:13:00,
2013-02-13 10:16:00,43.1,40.7,29.78,ESE,106,2.0,4.0,91,0.02,,SKC,0.03,134.00,VWS V14.01,2013-02-13 15:16:00,
2013-02-13 10:17:00,43.1,40.7,29.78,ESE,106,1.0,4.0,91,0.02,,SKC,0.03,114.00,VWS V14.01,2013-02-13 15:17:00,
2013-02-13 10:18:00,43.1,40.7,29.79,ESE,106,1.0,4.0,91,0.02,,SKC,0.03,72.00,VWS V14.01,2013-02-13 15:18:00,
2013-02-13 10:21:00,43.1,40.7,29.79,SE,134,3.0,5.0,91,0.02,,SKC,0.03,62.00,VWS V14.01,2013-02-13 15:21:00,
2013-02-13 10:22:00,43.1,40.7,29.78,SE,134,1.0,5.0,91,0.02,,SKC,0.03,62.00,VWS V14.01,2013-02-13 15:22:00,
2013-02-13 10:23:00,43.1,40.9,29.78,ESE,120,3.0,5.0,92,0.02,,SKC,0.03,95.00,VWS V14.01,2013-02-13 15:23:00,
2013-02-13 10:27:00,43.1,40.9,29.78,ESE,120,2.0,5.0,92,0.02,,SKC,0.03,100.00,VWS V14.01,2013-02-13 15:27:00,
2013-02-13 10:28:00,43.1,40.9,29.78,ESE,119,2.0,5.0,92,0.02,,SKC,0.03,77.00,VWS V14.01,2013-02-13 15:28:00,
2013-02-13 10:29:00,43.2,41.0,29.78,ESE,119,1.0,5.0,92,0.02,,SKC,0.03,63.00,VWS V14.01,2013-02-13 15:29:00,
2013-02-13 10:32:00,43.2,41.0,29.77,ESE,120,3.0,3.0,92,0.03,,SKC,0.04,56.00,VWS V14.01,2013-02-13 15:32:00,
2013-02-13 10:33:00,43.2,41.0,29.78,ESE,119,0.0,3.0,92,0.03,,SKC,0.04,42.00,VWS V14.01,2013-02-13 15:33:00,
2013-02-13 10:34:00,43.2,41.0,29.78,ESE,120,0.0,3.0,92,0.03,,SKC,0.04,39.00,VWS V14.01,2013-02-13 15:34:00,
2013-02-13 10:37:00,43.2,41.0,29.78,ESE,120,1.0,3.0,92,0.03,,SKC,0.04,47.00,VWS V14.01,2013-02-13 15:37:00,
2013-02-13 10:38:00,43.2,41.0,29.78,ESE,119,1.0,3.0,92,0.03,,SKC,0.04,46.00,VWS V14.01,2013-02-13 15:38:00,
2013-02-13 10:39:00,43.2,41.3,29.78,ESE,120,0.0,3.0,93,0.03,,SKC,0.04,35.00,VWS V14.01,2013-02-13 15:39:00,
2013-02-13 10:42:00,43.1,41.2,29.78,ESE,120,1.0,3.0,93,0.03,,SKC,0.04,32.00,VWS V14.01,2013-02-13 15:42:00,
2013-02-13 10:43:00,43.1,41.2,29.78,ESE,119,1.0,3.0,93,0.03,,SKC,0.04,32.00,VWS V14.01,2013-02-13 15:43:00,
2013-02-13 10:44:00,43.1,41.2,29.78,ESE,120,2.0,3.0,93,0.03,,SKC,0.04,32.00,VWS V14.01,2013-02-13 15:44:00,
2013-02-13 10:47:00,43.1,41.2,29.78,ESE,120,2.0,3.0,93,0.03,,SKC,0.04,23.00,VWS V14.01,2013-02-13 15:47:00,
2013-02-13 10:48:00,43.1,41.2,29.78,ESE,120,1.0,3.0,93,0.03,,SKC,0.04,23.00,VWS V14.01,2013-02-13 15:48:00,
2013-02-13 10:49:00,43.1,41.2,29.78,ESE,119,1.0,3.0,93,0.03,,SKC,0.04,25.00,VWS V14.01,2013-02-13 15:49:00,
2013-02-13 10:52:00,43.1,41.2,29.78,ESE,120,0.0,3.0,93,0.03,,SKC,0.04,30.00,VWS V14.01,2013-02-13 15:52:00,
2013-02-13 10:53:00,43.1,41.2,29.78,ESE,120,0.0,3.0,93,0.03,,SKC,0.04,35.00,VWS V14.01,2013-02-13 15:53:00,
2013-02-13 10:54:00,43.1,41.2,29.78,ESE,119,0.0,3.0,93,0.03,,SKC,0.04,35.00,VWS V14.01,2013-02-13 15:54:00,
2013-02-13 10:58:00,43.1,41.2,29.77,ESE,120,0.0,3.0,93,0.03,,SKC,0.04,65.00,VWS V14.01,2013-02-13 15:58:00,
2013-02-13 10:59:00,43.0,41.1,29.77,East,90,0.0,5.0,93,0.03,,SKC,0.04,62.00,VWS V14.01,2013-02-13 15:59:00,
2013-02-13 11:03:00,43.1,41.5,29.77,ESE,103,1.0,5.0,94,0.03,,SKC,0.04,56.00,VWS V14.01,2013-02-13 16:03:00,
2013-02-13 11:04:00,43.1,41.5,29.78,ESE,105,3.0,5.0,94,0.03,,SKC,0.04,51.00,VWS V14.01,2013-02-13 16:04:00,
2013-02-13 11:08:00,43.0,41.4,29.78,SE,127,0.0,5.0,94,0.03,,SKC,0.04,30.00,VWS V14.01,2013-02-13 16:08:00,
2013-02-13 11:09:00,43.0,41.4,29.77,SE,127,0.0,5.0,94,0.03,,SKC,0.04,30.00,VWS V14.01,2013-02-13 16:09:00,
2013-02-13 11:14:00,43.0,41.4,29.77,ESE,121,3.0,7.0,94,0.03,,SKC,0.04,32.00,VWS V14.01,2013-02-13 16:14:00,
2013-02-13 11:15:00,43.0,41.4,29.77,SE,124,1.0,7.0,94,0.03,,SKC,0.04,33.00,VWS V14.01,2013-02-13 16:15:00,
2013-02-13 11:19:00,42.9,41.3,29.76,ESE,111,2.0,7.0,94,0.03,,SKC,0.04,49.00,VWS V14.01,2013-02-13 16:19:00,
2013-02-13 11:20:00,42.9,41.3,29.76,ESE,111,2.0,7.0,94,0.03,,SKC,0.04,63.00,VWS V14.01,2013-02-13 16:20:00,
2013-02-13 11:24:00,42.9,41.3,29.77,ESE,122,1.0,7.0,94,0.03,,SKC,0.04,40.00,VWS V14.01,2013-02-13 16:24:00,
2013-02-13 11:25:00,42.9,41.3,29.77,ESE,123,1.0,7.0,94,0.03,,SKC,0.04,40.00,VWS V14.01,2013-02-13 16:25:00,
2013-02-13 11:29:00,42.9,41.3,29.76,SE,131,3.0,7.0,94,0.04,,SKC,0.05,40.00,VWS V14.01,2013-02-13 16:29:00,
2013-02-13 11:30:00,42.9,41.3,29.76,SE,131,1.0,7.0,94,0.04,,SKC,0.05,40.00,VWS V14.01,2013-02-13 16:30:00,
2013-02-13 11:34:00,42.9,41.6,29.76,SE,133,2.0,5.0,95,0.01,,SKC,0.05,32.00,VWS V14.01,2013-02-13 16:34:00,
2013-02-13 11:35:00,42.9,41.6,29.76,SE,133,1.0,5.0,95,0.01,,SKC,0.05,32.00,VWS V14.01,2013-02-13 16:35:00,
2013-02-13 11:39:00,42.9,41.6,29.76,East,99,1.0,6.0,95,0.01,,SKC,0.05,33.00,VWS V14.01,2013-02-13 16:39:00,
2013-02-13 11:40:00,42.9,41.6,29.76,East,99,0.0,6.0,95,0.01,,SKC,0.05,33.00,VWS V14.01,2013-02-13 16:40:00,
2013-02-13 11:41:00,42.8,41.5,29.76,East,99,0.0,6.0,95,0.01,,SKC,0.05,33.00,VWS V14.01,2013-02-13 16:41:00,
2013-02-13 11:44:00,42.9,41.6,29.75,ESE,105,2.0,6.0,95,0.01,,SKC,0.05,47.00,VWS V14.01,2013-02-13 16:44:00,
2013-02-13 11:45:00,42.8,41.5,29.75,ESE,105,0.0,6.0,95,0.01,,SKC,0.05,47.00,VWS V14.01,2013-02-13 16:45:00,
2013-02-13 11:46:00,42.9,41.6,29.75,ESE,107,7.0,7.0,95,0.01,,SKC,0.05,49.00,VWS V14.01,2013-02-13 16:46:00,
2013-02-13 11:50:00,42.8,41.5,29.75,ESE,106,3.0,7.0,95,0.01,,SKC,0.05,53.00,VWS V14.01,2013-02-13 16:50:00,
2013-02-13 11:51:00,42.8,41.5,29.75,East,97,6.0,7.0,95,0.01,,SKC,0.05,54.00,VWS V14.01,2013-02-13 16:51:00,
2013-02-13 11:55:00,42.7,41.4,29.74,ESE,121,4.0,9.0,95,0.01,,SKC,0.05,37.00,VWS V14.01,2013-02-13 16:55:00,
2013-02-13 11:56:00,42.7,41.4,29.74,ESE,118,3.0,9.0,95,0.01,,SKC,0.05,33.00,VWS V14.01,2013-02-13 16:56:00,
2013-02-13 12:00:00,42.7,41.4,29.74,SE,128,2.0,9.0,95,0.01,,SKC,0.05,28.00,VWS V14.01,2013-02-13 17:00:00,
2013-02-13 12:01:00,42.7,41.4,29.74,SE,128,2.0,2.0,95,0.01,,SKC,0.05,25.00,VWS V14.01,2013-02-13 17:01:00,
2013-02-13 12:02:00,42.6,41.3,29.74,SE,128,2.0,2.0,95,0.01,,SKC,0.05,26.00,VWS V14.01,2013-02-13 17:02:00,
2013-02-13 12:05:00,42.7,41.4,29.75,East,98,1.0,3.0,95,0.01,,SKC,0.05,30.00,VWS V14.01,2013-02-13 17:05:00,
2013-02-13 12:06:00,42.7,41.4,29.75,East,101,2.0,3.0,95,0.01,,SKC,0.05,30.00,VWS V14.01,2013-02-13 17:06:00,
2013-02-13 12:07:00,42.7,41.4,29.75,SE,125,2.0,3.0,95,0.01,,SKC,0.05,37.00,VWS V14.01,2013-02-13 17:07:00,
2013-02-13 12:10:00,42.7,41.4,29.75,SE,132,1.0,5.0,95,0.01,,SKC,0.05,70.00,VWS V14.01,2013-02-13 17:10:00,
2013-02-13 12:11:00,42.7,41.4,29.75,SE,132,1.0,5.0,95,0.01,,SKC,0.05,70.00,VWS V14.01,2013-02-13 17:11:00,
2013-02-13 12:12:00,42.7,41.4,29.75,SE,132,0.0,5.0,95,0.01,,SKC,0.05,69.00,VWS V14.01,2013-02-13 17:12:00,
2013-02-13 12:16:00,42.8,41.5,29.74,SE,130,3.0,5.0,95,0.01,,SKC,0.05,49.00,VWS V14.01,2013-02-13 17:16:00,
2013-02-13 12:17:00,42.8,41.5,29.74,SE,130,2.0,5.0,95,0.01,,SKC,0.05,44.00,VWS V14.01,2013-02-13 17:17:00,
2013-02-13 12:21:00,42.8,41.7,29.73,SE,128,2.0,5.0,96,0.01,,SKC,0.05,44.00,VWS V14.01,2013-02-13 17:21:00,
2013-02-13 12:22:00,42.8,41.7,29.72,SE,126,0.0,5.0,96,0.01,,SKC,0.05,51.00,VWS V14.01,2013-02-13 17:22:00,
2013-02-13 12:26:00,42.8,41.7,29.73,SE,140,3.0,5.0,96,0.01,,SKC,0.05,44.00,VWS V14.01,2013-02-13 17:26:00,
2013-02-13 12:27:00,42.8,41.7,29.73,SE,140,3.0,5.0,96,0.01,,SKC,0.05,47.00,VWS V14.01,2013-02-13 17:27:00,
2013-02-13 12:31:00,42.8,41.7,29.72,SE,140,0.0,0.0,96,0.00,,SKC,0.05,88.00,VWS V14.01,2013-02-13 17:31:00,
2013-02-13 12:32:00,42.8,41.7,29.72,SE,140,1.0,2.0,96,0.00,,SKC,0.05,74.00,VWS V14.01,2013-02-13 17:32:00,
2013-02-13 12:36:00,42.8,41.7,29.72,ESE,111,2.0,4.0,96,0.00,,SKC,0.05,70.00,VWS V14.01,2013-02-13 17:36:00,
2013-02-13 12:37:00,42.9,41.8,29.72,ESE,117,1.0,5.0,96,0.00,,SKC,0.05,69.00,VWS V14.01,2013-02-13 17:37:00,
2013-02-13 12:38:00,42.9,41.8,29.72,ESE,118,2.0,5.0,96,0.00,,SKC,0.05,65.00,VWS V14.01,2013-02-13 17:38:00,
2013-02-13 12:41:00,42.8,41.7,29.71,ESE,109,2.0,5.0,96,0.00,,SKC,0.05,81.00,VWS V14.01,2013-02-13 17:41:00,
2013-02-13 12:42:00,42.8,41.7,29.71,ESE,109,1.0,5.0,96,0.00,,SKC,0.05,72.00,VWS V14.01,2013-02-13 17:42:00,
2013-02-13 12:43:00,42.8,41.7,29.71,ESE,117,3.0,5.0,96,0.00,,SKC,0.05,65.00,VWS V14.01,2013-02-13 17:43:00,
2013-02-13 12:47:00,42.8,41.7,29.70,ESE,119,1.0,5.0,96,0.00,,SKC,0.05,77.00,VWS V14.01,2013-02-13 17:47:00,
2013-02-13 12:48:00,42.8,41.7,29.70,ESE,119,0.0,5.0,96,0.00,,SKC,0.05,65.00,VWS V14.01,2013-02-13 17:48:00,
2013-02-13 12:52:00,42.8,41.7,29.70,East,84,1.0,5.0,96,0.00,,SKC,0.05,39.00,VWS V14.01,2013-02-13 17:52:00,
2013-02-13 12:54:00,42.8,41.7,29.70,East,92,0.0,5.0,96,0.00,,SKC,0.05,65.00,VWS V14.01,2013-02-13 17:54:00,
2013-02-13 12:57:00,42.8,41.7,29.69,ESE,105,0.0,5.0,96,0.00,,SKC,0.05,72.00,VWS V14.01,2013-02-13 17:57:00,
2013-02-13 12:59:00,42.8,41.7,29.70,SE,135,1.0,5.0,96,0.00,,SKC,0.05,62.00,VWS V14.01,2013-02-13 17:59:00,
2013-02-13 13:02:00,42.8,41.7,29.69,SE,135,1.0,2.0,96,0.00,,SKC,0.05,65.00,VWS V14.01,2013-02-13 18:02:00,
2013-02-13 13:04:00,42.9,41.8,29.69,SE,135,1.0,3.0,96,0.00,,SKC,0.05,83.00,VWS V14.01,2013-02-13 18:04:00,
2013-02-13 13:07:00,42.9,41.8,29.68,ESE,121,2.0,4.0,96,0.00,,SKC,0.05,72.00,VWS V14.01,2013-02-13 18:07:00,
2013-02-13 13:09:00,42.9,41.8,29.68,SE,125,0.0,4.0,96,0.00,,SKC,0.05,72.00,VWS V14.01,2013-02-13 18:09:00,
2013-02-13 13:12:00,43.0,41.9,29.68,SE,125,3.0,4.0,96,0.00,,SKC,0.05,56.00,VWS V14.01,2013-02-13 18:12:00,
2013-02-13 13:14:00,43.0,41.9,29.68,SE,126,3.0,4.0,96,0.00,,SKC,0.05,47.00,VWS V14.01,2013-02-13 18:14:00,
2013-02-13 13:17:00,42.9,41.8,29.68,SE,126,2.0,4.0,96,0.00,,SKC,0.05,53.00,VWS V14.01,2013-02-13 18:17:00,
2013-02-13 13:18:00,42.9,41.8,29.68,SE,126,2.0,4.0,96,0.00,,SKC,0.05,53.00,VWS V14.01,2013-02-13 18:18:00,
2013-02-13 13:19:00,42.9,41.8,29.68,SE,126,1.0,4.0,96,0.00,,SKC,0.05,62.00,VWS V14.01,2013-02-13 18:19:00,
2013-02-13 13:22:00,42.9,41.8,29.67,SE,126,0.0,4.0,96,0.00,,SKC,0.05,49.00,VWS V14.01,2013-02-13 18:22:00,
2013-02-13 13:23:00,42.9,41.8,29.67,SE,126,2.0,4.0,96,0.00,,SKC,0.05,47.00,VWS V14.01,2013-02-13 18:23:00,
2013-02-13 13:24:00,42.9,41.8,29.67,ESE,122,1.0,5.0,96,0.00,,SKC,0.05,54.00,VWS V14.01,2013-02-13 18:24:00,
2013-02-13 13:27:00,42.9,41.8,29.67,ESE,123,2.0,5.0,96,0.00,,SKC,0.05,62.00,VWS V14.01,2013-02-13 18:27:00,
2013-02-13 13:28:00,42.9,41.8,29.67,ESE,123,1.0,5.0,96,0.00,,SKC,0.05,69.00,VWS V14.01,2013-02-13 18:28:00,
2013-02-13 13:29:00,42.9,41.8,29.67,ESE,123,2.0,5.0,96,0.00,,SKC,0.05,77.00,VWS V14.01,2013-02-13 18:29:00,
2013-02-13 13:33:00,43.0,41.9,29.67,ESE,122,0.0,1.0,96,0.00,,SKC,0.05,53.00,VWS V14.01,2013-02-13 18:33:00,
2013-02-13 13:35:00,42.9,41.8,29.67,NE,49,0.0,3.0,96,0.00,,SKC,0.05,40.00,VWS V14.01,2013-02-13 18:35:00,
2013-02-13 13:38:00,42.6,41.5,29.67,NE,45,3.0,3.0,96,0.00,,SKC,0.05,35.00,VWS V14.01,2013-02-13 18:38:00,
2013-02-13 13:40:00,42.2,40.9,29.67,SE,134,0.0,3.0,95,0.00,,SKC,0.05,40.00,VWS V14.01,2013-02-13 18:40:00,
2013-02-13 13:43:00,41.8,40.5,29.67,East,92,1.0,3.0,95,0.00,,SKC,0.05,33.00,VWS V14.01,2013-02-13 18:43:00,
2013-02-13 13:44:00,41.7,40.4,29.66,NE,52,0.0,3.0,95,0.00,,SKC,0.05,37.00,VWS V14.01,2013-02-13 18:44:00,
2013-02-13 13:45:00,41.6,40.3,29.66,NE,51,1.0,4.0,95,0.00,,SKC,0.05,33.00,VWS V14.01,2013-02-13 18:45:00,
2013-02-13 13:48:00,41.4,40.1,29.66,NE,51,0.0,4.0,95,0.00,,SKC,0.05,44.00,VWS V14.01,2013-02-13 18:48:00,
2013-02-13 13:49:00,41.4,40.1,29.66,NE,51,1.0,4.0,95,0.00,,SKC,0.05,42.00,VWS V14.01,2013-02-13 18:49:00,
2013-02-13 13:50:00,41.2,39.9,29.66,NE,51,2.0,4.0,95,0.00,,SKC,0.05,46.00,VWS V14.01,2013-02-13 18:50:00,
2013-02-13 13:53:00,41.1,39.8,29.66,NE,51,1.0,4.0,95,0.00,,SKC,0.05,44.00,VWS V14.01,2013-02-13 18:53:00,
2013-02-13 13:54:00,41.0,39.7,29.66,NE,51,0.0,4.0,95,0.00,,SKC,0.05,47.00,VWS V14.01,2013-02-13 18:54:00,
2013-02-13 13:55:00,41.0,39.7,29.66,NE,46,3.0,4.0,95,0.00,,SKC,0.05,53.00,VWS V14.01,2013-02-13 18:55:00,
2013-02-13 13:56:00,41.0,39.7,29.66,NE,44,3.0,4.0,95,0.00,,SKC,0.05,58.00,VWS V14.01,2013-02-13 18:56:00,
2013-02-13 13:58:00,40.8,39.5,29.65,NE,44,1.0,5.0,95,0.00,,SKC,0.05,56.00,VWS V14.01,2013-02-13 18:58:00,
2013-02-13 13:59:00,40.8,39.5,29.65,ENE,59,1.0,5.0,95,0.00,,SKC,0.05,46.00,VWS V14.01,2013-02-13 18:59:00,
2013-02-13 14:00:00,40.7,39.4,29.65,ENE,60,2.0,5.0,95,0.00,,SKC,0.05,40.00,VWS V14.01,2013-02-13 19:00:00,
2013-02-13 14:01:00,40.7,39.4,29.65,ENE,67,1.0,5.0,95,0.00,,SKC,0.05,46.00,VWS V14.01,2013-02-13 19:01:00,
2013-02-13 14:03:00,40.7,39.7,29.65,NNE,26,3.0,4.0,96,0.01,,SKC,0.06,47.00,VWS V14.01,2013-02-13 19:03:00,
2013-02-13 14:04:00,40.7,39.7,29.65,NNE,26,4.0,5.0,96,0.01,,SKC,0.06,47.00,VWS V14.01,2013-02-13 19:04:00,
2013-02-13 14:05:00,40.6,39.5,29.65,NNE,26,3.0,5.0,96,0.01,,SKC,0.06,56.00,VWS V14.01,2013-02-13 19:05:00,
2013-02-13 14:06:00,40.6,39.5,29.65,NNE,26,2.0,5.0,96,0.01,,SKC,0.06,67.00,VWS V14.01,2013-02-13 19:06:00,
2013-02-13 14:08:00,40.5,39.5,29.65,NE,55,5.0,5.0,96,0.01,,SKC,0.06,46.00,VWS V14.01,2013-02-13 19:08:00,
2013-02-13 14:09:00,40.5,39.2,29.65,NE,47,3.0,5.0,95,0.01,,SKC,0.06,40.00,VWS V14.01,2013-02-13 19:09:00,
2013-02-13 14:10:00,40.5,39.2,29.66,NNE,28,2.0,5.0,95,0.01,,SKC,0.06,46.00,VWS V14.01,2013-02-13 19:10:00,
2013-02-13 14:11:00,40.4,39.1,29.66,NNE,28,1.0,5.0,95,0.01,,SKC,0.06,40.00,VWS V14.01,2013-02-13 19:11:00,
2013-02-13 14:14:00,40.4,39.3,29.66,NNE,28,2.0,5.0,96,0.01,,SKC,0.06,28.00,VWS V14.01,2013-02-13 19:14:00,
2013-02-13 14:15:00,40.5,39.5,29.66,NNE,19,3.0,5.0,96,0.01,,SKC,0.06,25.00,VWS V14.01,2013-02-13 19:15:00,
2013-02-13 14:16:00,40.5,39.5,29.66,NNE,19,1.0,5.0,96,0.01,,SKC,0.06,25.00,VWS V14.01,2013-02-13 19:16:00,
2013-02-13 14:19:00,40.4,39.3,29.66,NNE,22,1.0,5.0,96,0.01,,SKC,0.06,37.00,VWS V14.01,2013-02-13 19:19:00,
2013-02-13 14:21:00,40.4,39.3,29.66,NNE,31,2.0,5.0,96,0.01,,SKC,0.06,26.00,VWS V14.01,2013-02-13 19:21:00,
2013-02-13 14:24:00,40.3,39.2,29.65,NNE,28,2.0,6.0,96,0.01,,SKC,0.06,37.00,VWS V14.01,2013-02-13 19:24:00,
2013-02-13 14:26:00,40.2,39.2,29.65,NNE,28,3.0,6.0,96,0.02,,SKC,0.07,69.00,VWS V14.01,2013-02-13 19:26:00,
2013-02-13 14:29:00,40.2,39.2,29.65,NE,47,4.0,6.0,96,0.02,,SKC,0.07,49.00,VWS V14.01,2013-02-13 19:29:00,
2013-02-13 14:31:00,40.1,39.0,29.64,NE,46,4.0,5.0,96,0.02,,SKC,0.07,46.00,VWS V14.01,2013-02-13 19:31:00,
2013-02-13 14:34:00,40.1,39.0,29.64,NE,41,3.0,7.0,96,0.02,,SKC,0.07,46.00,VWS V14.01,2013-02-13 19:34:00,
2013-02-13 14:36:00,40.0,39.0,29.64,NNE,30,4.0,7.0,96,0.02,,SKC,0.07,49.00,VWS V14.01,2013-02-13 19:36:00,
2013-02-13 14:39:00,40.0,39.0,29.64,NE,44,4.0,7.0,96,0.02,,SKC,0.07,32.00,VWS V14.01,2013-02-13 19:39:00,
2013-02-13 14:40:00,40.0,39.0,29.64,ENE,61,2.0,7.0,96,0.02,,SKC,0.07,35.00,VWS V14.01,2013-02-13 19:40:00,
2013-02-13 14:42:00,40.0,39.0,29.64,NE,36,0.0,7.0,96,0.02,,SKC,0.07,46.00,VWS V14.01,2013-02-13 19:42:00,
2013-02-13 14:44:00,40.0,39.0,29.64,NE,38,1.0,7.0,96,0.02,,SKC,0.07,46.00,VWS V14.01,2013-02-13 19:44:00,
2013-02-13 14:45:00,40.0,39.0,29.65,NE,38,1.0,7.0,96,0.02,,SKC,0.07,46.00,VWS V14.01,2013-02-13 19:45:00,
2013-02-13 14:47:00,40.0,39.0,29.65,ENE,67,1.0,7.0,96,0.02,,SKC,0.07,39.00,VWS V14.01,2013-02-13 19:47:00,
2013-02-13 14:50:00,40.1,39.0,29.65,NE,42,4.0,7.0,96,0.02,,SKC,0.07,40.00,VWS V14.01,2013-02-13 19:50:00,
2013-02-13 14:52:00,40.1,39.0,29.64,NNE,33,4.0,7.0,96,0.02,,SKC,0.07,39.00,VWS V14.01,2013-02-13 19:52:00,
2013-02-13 14:53:00,40.0,39.0,29.64,NNE,24,4.0,7.0,96,0.02,,SKC,0.07,39.00,VWS V14.01,2013-02-13 19:53:00,
2013-02-13 14:55:00,40.1,39.0,29.64,NNE,26,3.0,7.0,96,0.03,,SKC,0.08,33.00,VWS V14.01,2013-02-13 19:55:00,
2013-02-13 14:57:00,40.0,39.0,29.64,NNE,25,3.0,7.0,96,0.03,,SKC,0.08,47.00,VWS V14.01,2013-02-13 19:57:00,
2013-02-13 14:58:00,40.1,39.0,29.64,NNE,25,0.0,7.0,96,0.03,,SKC,0.08,44.00,VWS V14.01,2013-02-13 19:58:00,
2013-02-13 15:00:00,40.1,39.0,29.64,NNE,25,3.0,7.0,96,0.03,,SKC,0.08,72.00,VWS V14.01,2013-02-13 20:00:00,
2013-02-13 15:01:00,40.1,39.0,29.64,NNE,25,2.0,7.0,96,0.03,,SKC,0.08,72.00,VWS V14.01,2013-02-13 20:01:00,
2013-02-13 15:02:00,40.1,39.0,29.64,NNE,25,0.0,2.0,96,0.04,,SKC,0.09,39.00,VWS V14.01,2013-02-13 20:02:00,
2013-02-13 15:04:00,40.2,39.2,29.64,NNE,25,2.0,2.0,96,0.04,,SKC,0.09,42.00,VWS V14.01,2013-02-13 20:04:00,
2013-02-13 15:05:00,40.2,39.2,29.64,NNE,25,3.0,3.0,96,0.04,,SKC,0.09,47.00,VWS V14.01,2013-02-13 20:05:00,
2013-02-13 15:06:00,40.2,39.2,29.64,NNE,25,2.0,3.0,96,0.04,,SKC,0.09,47.00,VWS V14.01,2013-02-13 20:06:00,
2013-02-13 15:08:00,40.2,39.2,29.64,NE,40,2.0,3.0,96,0.05,,SKC,0.10,42.00,VWS V14.01,2013-02-13 20:08:00,
2013-02-13 15:09:00,40.2,39.2,29.64,NE,40,3.0,4.0,96,0.05,,SKC,0.10,35.00,VWS V14.01,2013-02-13 20:09:00,
2013-02-13 15:10:00,40.2,39.2,29.64,ENE,67,1.0,4.0,96,0.05,,SKC,0.10,30.00,VWS V14.01,2013-02-13 20:10:00,
2013-02-13 15:11:00,40.2,39.2,29.64,ENE,64,2.0,4.0,96,0.05,,SKC,0.10,30.00,VWS V14.01,2013-02-13 20:11:00,
2013-02-13 15:13:00,40.2,39.2,29.64,NE,49,2.0,4.0,96,0.05,,SKC,0.10,23.00,VWS V14.01,2013-02-13 20:13:00,
2013-02-13 15:14:00,40.2,39.2,29.64,NE,49,0.0,4.0,96,0.05,,SKC,0.10,25.00,VWS V14.01,2013-02-13 20:14:00,
2013-02-13 15:16:00,40.2,39.4,29.65,NE,49,0.0,4.0,97,0.05,,SKC,0.10,18.00,VWS V14.01,2013-02-13 20:16:00,
2013-02-13 15:17:00,40.2,39.2,29.64,NE,49,4.0,4.0,96,0.05,,SKC,0.10,23.00,VWS V14.01,2013-02-13 20:17:00,
2013-02-13 15:18:00,40.2,39.2,29.65,NE,49,2.0,4.0,96,0.05,,SKC,0.10,33.00,VWS V14.01,2013-02-13 20:18:00,
2013-02-13 15:20:00,40.2,39.2,29.65,NE,49,0.0,4.0,96,0.05,,SKC,0.10,40.00,VWS V14.01,2013-02-13 20:20:00,
2013-02-13 15:21:00,40.2,39.4,29.65,NE,49,0.0,4.0,97,0.05,,SKC,0.10,39.00,VWS V14.01,2013-02-13 20:21:00,
2013-02-13 15:22:00,40.2,39.4,29.65,NE,49,0.0,4.0,97,0.05,,SKC,0.10,40.00,VWS V14.01,2013-02-13 20:22:00,
2013-02-13 15:24:00,40.3,39.5,29.65,NE,49,0.0,4.0,97,0.05,,SKC,0.10,37.00,VWS V14.01,2013-02-13 20:24:00,
2013-02-13 15:25:00,40.3,39.5,29.65,NE,49,2.0,4.0,97,0.05,,SKC,0.10,40.00,VWS V14.01,2013-02-13 20:25:00,
2013-02-13 15:26:00,40.3,39.5,29.65,NE,49,0.0,4.0,97,0.05,,SKC,0.10,44.00,VWS V14.01,2013-02-13 20:26:00,
2013-02-13 15:28:00,40.3,39.5,29.65,NE,49,0.0,4.0,97,0.06,,SKC,0.11,26.00,VWS V14.01,2013-02-13 20:28:00,
2013-02-13 15:29:00,40.4,39.6,29.65,NE,49,0.0,4.0,97,0.06,,SKC,0.11,25.00,VWS V14.01,2013-02-13 20:29:00,
2013-02-13 15:30:00,40.4,39.6,29.65,NE,49,0.0,4.0,97,0.06,,SKC,0.11,26.00,VWS V14.01,2013-02-13 20:30:00,
2013-02-13 15:31:00,40.4,39.6,29.65,NE,49,3.0,3.0,97,0.04,,SKC,0.11,32.00,VWS V14.01,2013-02-13 20:31:00,
2013-02-13 15:33:00,40.4,39.6,29.65,NE,49,3.0,3.0,97,0.04,,SKC,0.11,42.00,VWS V14.01,2013-02-13 20:33:00,
2013-02-13 15:34:00,40.5,39.7,29.65,NE,49,1.0,3.0,97,0.04,,SKC,0.11,35.00,VWS V14.01,2013-02-13 20:34:00,
2013-02-13 15:35:00,40.5,39.7,29.65,NE,49,0.0,3.0,97,0.04,,SKC,0.11,33.00,VWS V14.01,2013-02-13 20:35:00,
2013-02-13 15:36:00,40.5,39.7,29.65,NE,49,0.0,3.0,97,0.04,,SKC,0.11,40.00,VWS V14.01,2013-02-13 20:36:00,
2013-02-13 15:38:00,40.5,39.7,29.66,NE,49,1.0,3.0,97,0.04,,SKC,0.11,37.00,VWS V14.01,2013-02-13 20:38:00,
2013-02-13 15:39:00,40.6,39.8,29.66,NE,49,0.0,3.0,97,0.04,,SKC,0.11,37.00,VWS V14.01,2013-02-13 20:39:00,
2013-02-13 15:41:00,40.6,39.8,29.65,NE,49,0.0,3.0,97,0.04,,SKC,0.11,42.00,VWS V14.01,2013-02-13 20:41:00,
2013-02-13 15:43:00,40.6,39.8,29.65,NE,49,2.0,3.0,97,0.04,,SKC,0.11,54.00,VWS V14.01,2013-02-13 20:43:00,
2013-02-13 15:44:00,40.6,39.8,29.65,NE,49,1.0,3.0,97,0.04,,SKC,0.11,54.00,VWS V14.01,2013-02-13 20:44:00,
2013-02-13 15:46:00,40.6,39.8,29.65,NE,49,0.0,3.0,97,0.04,,SKC,0.11,40.00,VWS V14.01,2013-02-13 20:46:00,
2013-02-13 15:48:00,40.6,39.8,29.65,NE,49,0.0,3.0,97,0.04,,SKC,0.11,39.00,VWS V14.01,2013-02-13 20:48:00,
2013-02-13 15:49:00,40.6,39.8,29.65,NE,49,0.0,3.0,97,0.04,,SKC,0.11,47.00,VWS V14.01,2013-02-13 20:49:00,
2013-02-13 15:51:00,40.7,39.9,29.65,NE,49,0.0,3.0,97,0.04,,SKC,0.11,51.00,VWS V14.01,2013-02-13 20:51:00,
2013-02-13 15:52:00,40.7,39.9,29.65,NE,49,0.0,3.0,97,0.04,,SKC,0.11,47.00,VWS V14.01,2013-02-13 20:52:00,
2013-02-13 15:53:00,40.7,39.9,29.65,NE,49,0.0,3.0,97,0.04,,SKC,0.11,40.00,VWS V14.01,2013-02-13 20:53:00,
2013-02-13 15:55:00,40.7,39.9,29.65,NE,49,1.0,3.0,97,0.04,,SKC,0.11,46.00,VWS V14.01,2013-02-13 20:55:00,
2013-02-13 15:56:00,40.7,39.9,29.65,NE,49,2.0,3.0,97,0.04,,SKC,0.11,46.00,VWS V14.01,2013-02-13 20:56:00,
2013-02-13 15:57:00,40.7,39.9,29.65,NE,49,1.0,3.0,97,0.04,,SKC,0.11,47.00,VWS V14.01,2013-02-13 20:57:00,
2013-02-13 15:59:00,40.7,39.9,29.65,NE,49,0.0,3.0,97,0.04,,SKC,0.11,49.00,VWS V14.01,2013-02-13 20:59:00,
2013-02-13 16:00:00,40.7,39.9,29.65,NE,49,0.0,3.0,97,0.04,,SKC,0.11,49.00,VWS V14.01,2013-02-13 21:00:00,
2013-02-13 16:01:00,40.8,40.0,29.65,NE,49,0.0,0.0,97,0.03,,SKC,0.11,47.00,VWS V14.01,2013-02-13 21:01:00,
2013-02-13 16:02:00,40.8,40.0,29.65,NE,49,0.0,1.0,97,0.03,,SKC,0.11,46.00,VWS V14.01,2013-02-13 21:02:00,
2013-02-13 16:04:00,40.8,40.0,29.66,NE,49,0.0,1.0,97,0.03,,SKC,0.11,42.00,VWS V14.01,2013-02-13 21:04:00,
2013-02-13 16:05:00,40.9,40.1,29.66,NE,49,0.0,1.0,97,0.03,,SKC,0.11,44.00,VWS V14.01,2013-02-13 21:05:00,
2013-02-13 16:06:00,40.8,40.0,29.65,NE,49,0.0,1.0,97,0.03,,SKC,0.11,51.00,VWS V14.01,2013-02-13 21:06:00,
2013-02-13 16:07:00,40.8,40.0,29.65,NE,49,0.0,1.0,97,0.03,,SKC,0.11,60.00,VWS V14.01,2013-02-13 21:07:00,
2013-02-13 16:09:00,40.8,40.0,29.65,NE,49,1.0,1.0,97,0.03,,SKC,0.11,49.00,VWS V14.01,2013-02-13 21:09:00,
2013-02-13 16:11:00,40.8,40.0,29.66,NE,49,0.0,1.0,97,0.03,,SKC,0.11,40.00,VWS V14.01,2013-02-13 21:11:00,
2013-02-13 16:12:00,40.8,40.0,29.66,NE,49,0.0,1.0,97,0.03,,SKC,0.11,33.00,VWS V14.01,2013-02-13 21:12:00,
2013-02-13 16:14:00,40.8,40.0,29.65,NE,49,1.0,1.0,97,0.03,,SKC,0.11,42.00,VWS V14.01,2013-02-13 21:14:00,
2013-02-13 16:16:00,40.8,40.0,29.65,NE,49,1.0,2.0,97,0.03,,SKC,0.11,44.00,VWS V14.01,2013-02-13 21:16:00,
2013-02-13 16:17:00,40.8,40.0,29.64,NE,49,0.0,2.0,97,0.03,,SKC,0.11,39.00,VWS V14.01,2013-02-13 21:17:00,
2013-02-13 16:18:00,40.8,40.0,29.64,NE,49,0.0,2.0,97,0.03,,SKC,0.11,35.00,VWS V14.01,2013-02-13 21:18:00,
2013-02-13 16:19:00,40.8,40.0,29.65,NE,49,0.0,2.0,97,0.03,,SKC,0.11,32.00,VWS V14.01,2013-02-13 21:19:00,
2013-02-13 16:21:00,40.8,40.0,29.64,NE,49,1.0,2.0,97,0.03,,SKC,0.11,33.00,VWS V14.01,2013-02-13 21:21:00,
2013-02-13 16:22:00,40.8,40.0,29.64,NE,49,0.0,2.0,97,0.03,,SKC,0.11,35.00,VWS V14.01,2013-02-13 21:22:00,
2013-02-13 16:23:00,40.8,40.0,29.64,NE,49,0.0,2.0,97,0.03,,SKC,0.11,35.00,VWS V14.01,2013-02-13 21:23:00,
2013-02-13 16:25:00,40.8,40.0,29.64,NE,49,0.0,2.0,97,0.03,,SKC,0.11,30.00,VWS V14.01,2013-02-13 21:25:00,
2013-02-13 16:26:00,40.8,40.0,29.64,NE,49,0.0,2.0,97,0.03,,SKC,0.11,28.00,VWS V14.01,2013-02-13 21:26:00,
2013-02-13 16:27:00,40.8,40.0,29.64,NE,49,0.0,2.0,97,0.03,,SKC,0.11,23.00,VWS V14.01,2013-02-13 21:27:00,
2013-02-13 16:28:00,40.8,40.0,29.64,NE,49,0.0,2.0,97,0.03,,SKC,0.11,23.00,VWS V14.01,2013-02-13 21:28:00,
2013-02-13 16:30:00,40.8,40.0,29.64,NE,49,0.0,2.0,97,0.03,,SKC,0.11,26.00,VWS V14.01,2013-02-13 21:30:00,
2013-02-13 16:31:00,40.9,40.1,29.64,NE,49,0.0,0.0,97,0.00,,SKC,0.11,23.00,VWS V14.01,2013-02-13 21:31:00,
2013-02-13 16:32:00,40.9,40.1,29.64,NE,49,0.0,0.0,97,0.00,,SKC,0.11,19.00,VWS V14.01,2013-02-13 21:32:00,
2013-02-13 16:33:00,41.0,40.2,29.64,NE,49,0.0,0.0,97,0.00,,SKC,0.11,19.00,VWS V14.01,2013-02-13 21:33:00,
2013-02-13 16:35:00,41.0,40.2,29.64,NE,49,0.0,0.0,97,0.00,,SKC,0.11,16.00,VWS V14.01,2013-02-13 21:35:00,
2013-02-13 16:36:00,41.0,40.2,29.64,NE,49,2.0,2.0,97,0.00,,SKC,0.11,16.00,VWS V14.01,2013-02-13 21:36:00,
2013-02-13 16:37:00,41.0,40.2,29.64,NE,49,0.0,2.0,97,0.00,,SKC,0.11,14.00,VWS V14.01,2013-02-13 21:37:00,
2013-02-13 16:38:00,41.0,40.2,29.64,NE,49,0.0,2.0,97,0.00,,SKC,0.11,14.00,VWS V14.01,2013-02-13 21:38:00,
2013-02-13 16:40:00,41.0,40.2,29.64,NE,49,0.0,2.0,97,0.00,,SKC,0.11,14.00,VWS V14.01,2013-02-13 21:40:00,
2013-02-13 16:41:00,41.0,40.2,29.64,NE,49,0.0,2.0,97,0.00,,SKC,0.11,12.00,VWS V14.01,2013-02-13 21:41:00,
2013-02-13 16:42:00,41.0,40.2,29.64,NE,49,0.0,2.0,97,0.00,,SKC,0.11,11.00,VWS V14.01,2013-02-13 21:42:00,
2013-02-13 16:43:00,41.0,40.2,29.64,NE,49,0.0,2.0,97,0.00,,SKC,0.11,11.00,VWS V14.01,2013-02-13 21:43:00,
2013-02-13 16:45:00,41.0,40.2,29.64,NE,49,0.0,2.0,97,0.00,,SKC,0.11,16.00,VWS V14.01,2013-02-13 21:45:00,
2013-02-13 16:46:00,41.0,40.2,29.64,NE,49,0.0,2.0,97,0.00,,SKC,0.11,12.00,VWS V14.01,2013-02-13 21:46:00,
2013-02-13 16:47:00,41.0,40.2,29.64,NE,49,0.0,2.0,97,0.00,,SKC,0.11,12.00,VWS V14.01,2013-02-13 21:47:00,
2013-02-13 16:48:00,41.0,40.2,29.64,NE,49,0.0,2.0,97,0.00,,SKC,0.11,12.00,VWS V14.01,2013-02-13 21:48:00,
2013-02-13 16:51:00,41.0,40.2,29.64,NE,49,1.0,2.0,97,0.00,,SKC,0.11,12.00,VWS V14.01,2013-02-13 21:51:00,
2013-02-13 16:52:00,41.0,40.2,29.64,NE,49,0.0,2.0,97,0.00,,SKC,0.11,12.00,VWS V14.01,2013-02-13 21:52:00,
2013-02-13 16:53:00,41.0,40.2,29.64,NE,49,0.0,2.0,97,0.00,,SKC,0.11,12.00,VWS V14.01,2013-02-13 21:53:00,
2013-02-13 16:54:00,41.0,40.2,29.64,NE,49,0.0,2.0,97,0.00,,SKC,0.11,11.00,VWS V14.01,2013-02-13 21:54:00,
2013-02-13 16:56:00,41.0,40.2,29.64,NE,49,0.0,2.0,97,0.00,,SKC,0.11,9.00,VWS V14.01,2013-02-13 21:56:00,
2013-02-13 16:57:00,40.9,40.1,29.64,NE,49,0.0,2.0,97,0.00,,SKC,0.11,9.00,VWS V14.01,2013-02-13 21:57:00,
2013-02-13 16:58:00,40.9,40.1,29.64,NE,49,1.0,2.0,97,0.00,,SKC,0.11,11.00,VWS V14.01,2013-02-13 21:58:00,
2013-02-13 16:59:00,40.9,40.1,29.64,NE,49,0.0,2.0,97,0.00,,SKC,0.11,11.00,VWS V14.01,2013-02-13 21:59:00,
2013-02-13 17:01:00,40.9,40.1,29.64,NE,49,0.0,0.0,97,0.00,,SKC,0.11,7.00,VWS V14.01,2013-02-13 22:01:00,
2013-02-13 17:02:00,40.9,40.1,29.64,NE,49,0.0,0.0,97,0.00,,SKC,0.11,9.00,VWS V14.01,2013-02-13 22:02:00,
2013-02-13 17:03:00,40.9,40.1,29.64,NE,49,0.0,0.0,97,0.00,,SKC,0.11,9.00,VWS V14.01,2013-02-13 22:03:00,
2013-02-13 17:04:00,40.9,40.1,29.64,NE,49,0.0,0.0,97,0.00,,SKC,0.11,9.00,VWS V14.01,2013-02-13 22:04:00,
2013-02-13 17:06:00,41.0,40.2,29.64,NE,49,0.0,0.0,97,0.00,,SKC,0.11,9.00,VWS V14.01,2013-02-13 22:06:00,
2013-02-13 17:07:00,41.0,40.2,29.64,NE,49,0.0,0.0,97,0.00,,SKC,0.11,7.00,VWS V14.01,2013-02-13 22:07:00,
2013-02-13 17:08:00,41.0,40.2,29.64,NE,49,0.0,0.0,97,0.00,,SKC,0.11,7.00,VWS V14.01,2013-02-13 22:08:00,
2013-02-13 17:09:00,41.0,40.2,29.64,NE,49,0.0,0.0,97,0.00,,SKC,0.11,7.00,VWS V14.01,2013-02-13 22:09:00,
2013-02-13 17:12:00,40.9,40.1,29.65,NE,49,0.0,0.0,97,0.01,,SKC,0.12,0.00,VWS V14.01,2013-02-13 22:12:00,
2013-02-13 17:13:00,41.0,40.2,29.65,NE,49,0.0,0.0,97,0.01,,SKC,0.12,0.00,VWS V14.01,2013-02-13 22:13:00,
2013-02-13 17:14:00,40.9,40.1,29.65,NE,49,0.0,0.0,97,0.01,,SKC,0.12,0.00,VWS V14.01,2013-02-13 22:14:00,
2013-02-13 17:17:00,40.9,40.1,29.65,NE,49,0.0,0.0,97,0.01,,SKC,0.12,7.00,VWS V14.01,2013-02-13 22:17:00,
2013-02-13 17:18:00,40.9,40.1,29.65,NE,49,0.0,0.0,97,0.01,,SKC,0.12,7.00,VWS V14.01,2013-02-13 22:18:00,
2013-02-13 17:19:00,41.0,40.2,29.65,NE,49,0.0,0.0,97,0.01,,SKC,0.12,5.00,VWS V14.01,2013-02-13 22:19:00,
2013-02-13 17:22:00,41.0,40.2,29.65,NE,49,0.0,0.0,97,0.01,,SKC,0.12,5.00,VWS V14.01,2013-02-13 22:22:00,
2013-02-13 17:23:00,41.0,40.2,29.65,NE,49,0.0,0.0,97,0.01,,SKC,0.12,5.00,VWS V14.01,2013-02-13 22:23:00,
2013-02-13 17:24:00,41.0,40.2,29.65,NE,49,0.0,0.0,97,0.01,,SKC,0.12,7.00,VWS V14.01,2013-02-13 22:24:00,
2013-02-13 17:27:00,40.9,40.1,29.66,NE,49,0.0,0.0,97,0.01,,SKC,0.12,5.00,VWS V14.01,2013-02-13 22:27:00,
2013-02-13 17:28:00,40.9,40.1,29.66,NE,49,0.0,0.0,97,0.01,,SKC,0.12,5.00,VWS V14.01,2013-02-13 22:28:00,
2013-02-13 17:29:00,41.0,40.2,29.66,NE,49,0.0,0.0,97,0.01,,SKC,0.12,5.00,VWS V14.01,2013-02-13 22:29:00,
2013-02-13 17:32:00,40.9,40.1,29.65,NE,49,0.0,0.0,97,0.01,,SKC,0.12,0.00,VWS V14.01,2013-02-13 22:32:00,
2013-02-13 17:33:00,40.9,40.1,29.65,NE,49,0.0,0.0,97,0.01,,SKC,0.12,0.00,VWS V14.01,2013-02-13 22:33:00,
2013-02-13 17:34:00,40.9,40.1,29.65,NE,49,0.0,0.0,97,0.01,,SKC,0.12,0.00,VWS V14.01,2013-02-13 22:34:00,
2013-02-13 17:37:00,40.9,40.1,29.65,NE,49,0.0,0.0,97,0.01,,SKC,0.12,0.00,VWS V14.01,2013-02-13 22:37:00,
2013-02-13 17:38:00,40.9,40.1,29.65,NE,49,0.0,0.0,97,0.01,,SKC,0.12,0.00,VWS V14.01,2013-02-13 22:38:00,
2013-02-13 17:39:00,40.9,40.1,29.65,NE,49,0.0,0.0,97,0.01,,SKC,0.12,0.00,VWS V14.01,2013-02-13 22:39:00,
2013-02-13 17:40:00,40.9,40.1,29.65,NE,49,0.0,0.0,97,0.01,,SKC,0.12,0.00,VWS V14.01,2013-02-13 22:40:00,
2013-02-13 17:42:00,40.9,40.1,29.66,NE,49,0.0,0.0,97,0.01,,SKC,0.12,0.00,VWS V14.01,2013-02-13 22:42:00,
2013-02-13 17:43:00,40.9,40.1,29.66,NE,49,0.0,0.0,97,0.01,,SKC,0.12,0.00,VWS V14.01,2013-02-13 22:43:00,
2013-02-13 17:44:00,40.9,40.1,29.66,NE,49,0.0,0.0,97,0.01,,SKC,0.12,0.00,VWS V14.01,2013-02-13 22:44:00,
2013-02-13 17:45:00,40.9,40.1,29.66,NE,49,0.0,0.0,97,0.01,,SKC,0.12,0.00,VWS V14.01,2013-02-13 22:45:00,
2013-02-13 17:48:00,40.9,40.1,29.66,NE,49,0.0,0.0,97,0.01,,SKC,0.12,0.00,VWS V14.01,2013-02-13 22:48:00,
2013-02-13 17:49:00,40.9,40.1,29.66,NE,49,0.0,0.0,97,0.01,,SKC,0.12,0.00,VWS V14.01,2013-02-13 22:49:00,
2013-02-13 17:50:00,40.9,40.1,29.66,NE,49,0.0,0.0,97,0.01,,SKC,0.12,0.00,VWS V14.01,2013-02-13 22:50:00,
2013-02-13 17:53:00,40.9,40.1,29.66,NE,49,0.0,0.0,97,0.01,,SKC,0.12,0.00,VWS V14.01,2013-02-13 22:53:00,
2013-02-13 17:54:00,40.9,40.1,29.66,NE,49,0.0,0.0,97,0.01,,SKC,0.12,0.00,VWS V14.01,2013-02-13 22:54:00,
2013-02-13 17:55:00,40.9,40.1,29.66,NE,49,0.0,0.0,97,0.01,,SKC,0.12,0.00,VWS V14.01,2013-02-13 22:55:00,
2013-02-13 17:59:00,41.0,40.2,29.66,NE,49,0.0,0.0,97,0.01,,SKC,0.12,0.00,VWS V14.01,2013-02-13 22:59:00,
2013-02-13 18:00:00,41.0,40.2,29.66,NE,49,1.0,1.0,97,0.01,,SKC,0.12,0.00,VWS V14.01,2013-02-13 23:00:00,
2013-02-13 18:04:00,41.0,40.2,29.66,NE,49,2.0,2.0,97,0.01,,SKC,0.12,0.00,VWS V14.01,2013-02-13 23:04:00,
2013-02-13 18:05:00,40.9,40.1,29.66,NE,49,0.0,2.0,97,0.01,,SKC,0.12,0.00,VWS V14.01,2013-02-13 23:05:00,
2013-02-13 18:09:00,40.9,40.1,29.66,NE,49,0.0,2.0,97,0.01,,SKC,0.12,0.00,VWS V14.01,2013-02-13 23:09:00,
2013-02-13 18:10:00,40.9,40.1,29.66,NE,49,0.0,2.0,97,0.01,,SKC,0.12,0.00,VWS V14.01,2013-02-13 23:10:00,
2013-02-13 18:11:00,40.9,40.1,29.66,NE,49,0.0,2.0,97,0.01,,SKC,0.12,0.00,VWS V14.01,2013-02-13 23:11:00,
2013-02-13 18:14:00,40.9,40.1,29.66,NE,49,1.0,2.0,97,0.01,,SKC,0.12,0.00,VWS V14.01,2013-02-13 23:14:00,
2013-02-13 18:15:00,40.9,40.1,29.66,NE,49,1.0,2.0,97,0.01,,SKC,0.12,0.00,VWS V14.01,2013-02-13 23:15:00,
2013-02-13 18:16:00,40.9,40.1,29.66,NE,49,2.0,2.0,97,0.01,,SKC,0.12,0.00,VWS V14.01,2013-02-13 23:16:00,
2013-02-13 18:19:00,41.0,40.2,29.67,North,5,3.0,4.0,97,0.02,,SKC,0.13,0.00,VWS V14.01,2013-02-13 23:19:00,
2013-02-13 18:20:00,41.0,40.2,29.67,North,5,3.0,4.0,97,0.02,,SKC,0.13,0.00,VWS V14.01,2013-02-13 23:20:00,
2013-02-13 18:21:00,41.0,40.2,29.67,North,5,2.0,4.0,97,0.02,,SKC,0.13,0.00,VWS V14.01,2013-02-13 23:21:00,
2013-02-13 18:24:00,41.0,40.2,29.68,North,5,0.0,4.0,97,0.03,,SKC,0.14,0.00,VWS V14.01,2013-02-13 23:24:00,
2013-02-13 18:25:00,41.0,40.2,29.68,North,5,0.0,4.0,97,0.03,,SKC,0.14,0.00,VWS V14.01,2013-02-13 23:25:00,
2013-02-13 18:26:00,41.0,40.2,29.68,North,5,0.0,4.0,97,0.03,,SKC,0.14,0.00,VWS V14.01,2013-02-13 23:26:00,
2013-02-13 18:29:00,41.0,40.2,29.68,North,5,1.0,4.0,97,0.04,,SKC,0.15,0.00,VWS V14.01,2013-02-13 23:29:00,
2013-02-13 18:30:00,41.0,40.2,29.68,North,5,0.0,4.0,97,0.04,,SKC,0.15,0.00,VWS V14.01,2013-02-13 23:30:00,
2013-02-13 18:31:00,41.0,40.2,29.68,North,5,0.0,4.0,97,0.04,,SKC,0.15,0.00,VWS V14.01,2013-02-13 23:31:00,
2013-02-13 18:34:00,41.1,40.3,29.68,North,5,0.0,0.0,97,0.03,,SKC,0.15,0.00,VWS V14.01,2013-02-13 23:34:00,
2013-02-13 18:36:00,41.0,40.2,29.68,North,5,0.0,2.0,97,0.03,,SKC,0.15,0.00,VWS V14.01,2013-02-13 23:36:00,
2013-02-13 18:39:00,41.1,40.3,29.68,North,5,1.0,2.0,97,0.03,,SKC,0.15,0.00,VWS V14.01,2013-02-13 23:39:00,
2013-02-13 18:40:00,41.1,40.3,29.68,North,5,2.0,2.0,97,0.03,,SKC,0.15,0.00,VWS V14.01,2013-02-13 23:40:00,
2013-02-13 18:41:00,41.0,40.2,29.68,North,5,0.0,3.0,97,0.03,,SKC,0.15,0.00,VWS V14.01,2013-02-13 23:41:00,
2013-02-13 18:44:00,41.0,40.2,29.69,North,5,0.0,3.0,97,0.03,,SKC,0.15,0.00,VWS V14.01,2013-02-13 23:44:00,
2013-02-13 18:45:00,41.0,40.2,29.69,North,5,0.0,3.0,97,0.03,,SKC,0.15,0.00,VWS V14.01,2013-02-13 23:45:00,
2013-02-13 18:46:00,41.0,40.2,29.69,North,5,0.0,3.0,97,0.03,,SKC,0.15,0.00,VWS V14.01,2013-02-13 23:46:00,
2013-02-13 18:49:00,41.1,40.3,29.69,NW,314,1.0,5.0,97,0.03,,SKC,0.15,0.00,VWS V14.01,2013-02-13 23:49:00,
2013-02-13 18:50:00,41.1,40.3,29.69,NW,324,1.0,5.0,97,0.03,,SKC,0.15,0.00,VWS V14.01,2013-02-13 23:50:00,
2013-02-13 18:51:00,41.1,40.3,29.69,NNW,331,0.0,5.0,97,0.03,,SKC,0.15,0.00,VWS V14.01,2013-02-13 23:51:00,
2013-02-13 18:55:00,41.3,40.5,29.69,WSW,252,3.0,5.0,97,0.03,,SKC,0.15,0.00,VWS V14.01,2013-02-13 23:55:00,
2013-02-13 18:56:00,41.4,40.6,29.69,West,280,0.0,5.0,97,0.03,,SKC,0.15,0.00,VWS V14.01,2013-02-13 23:56:00,
2013-02-13 18:57:00,41.4,40.6,29.69,West,280,0.0,5.0,97,0.03,,SKC,0.15,0.00,VWS V14.01,2013-02-13 23:57:00,
2013-02-13 19:00:00,41.4,40.6,29.70,WNW,294,0.0,5.0,97,0.03,,SKC,0.15,0.00,VWS V14.01,2013-02-14 00:00:00,
2013-02-13 19:02:00,41.5,41.0,29.71,West,275,5.0,5.0,98,0.03,,SKC,0.15,0.00,VWS V14.01,2013-02-14 00:02:00,
2013-02-13 19:03:00,41.5,41.0,29.71,NNW,336,6.0,6.0,98,0.03,,SKC,0.15,0.00,VWS V14.01,2013-02-14 00:03:00,
2013-02-13 19:05:00,41.5,41.0,29.71,WNW,292,4.0,11.0,98,0.03,,SKC,0.15,0.00,VWS V14.01,2013-02-14 00:05:00,
2013-02-13 19:07:00,41.7,40.9,29.71,WNW,282,10.0,13.0,97,0.03,,SKC,0.15,0.00,VWS V14.01,2013-02-14 00:07:00,
2013-02-13 19:09:00,41.8,41.0,29.72,WNW,295,3.0,13.0,97,0.03,,SKC,0.15,0.00,VWS V14.01,2013-02-14 00:09:00,
2013-02-13 19:10:00,41.8,41.0,29.72,West,263,5.0,13.0,97,0.03,,SKC,0.15,0.00,VWS V14.01,2013-02-14 00:10:00,
2013-02-13 19:12:00,41.9,41.1,29.72,NNW,344,6.0,13.0,97,0.03,,SKC,0.15,0.00,VWS V14.01,2013-02-14 00:12:00,
2013-02-13 19:14:00,41.9,41.1,29.72,North,350,9.0,14.0,97,0.03,,SKC,0.15,0.00,VWS V14.01,2013-02-14 00:14:00,
2013-02-13 19:15:00,41.9,41.1,29.72,NNW,333,7.0,14.0,97,0.03,,SKC,0.15,0.00,VWS V14.01,2013-02-14 00:15:00,
2013-02-13 19:17:00,41.9,40.8,29.72,WSW,256,8.0,14.0,96,0.03,,SKC,0.15,0.00,VWS V14.01,2013-02-14 00:17:00,
2013-02-13 19:19:00,41.9,40.8,29.72,NW,315,5.0,14.0,96,0.03,,SKC,0.15,0.00,VWS V14.01,2013-02-14 00:19:00,
2013-02-13 19:20:00,41.9,40.6,29.72,West,269,4.0,14.0,95,0.03,,SKC,0.15,0.00,VWS V14.01,2013-02-14 00:20:00,
2013-02-13 19:22:00,41.9,40.3,29.72,NW,318,4.0,14.0,94,0.03,,SKC,0.15,0.00,VWS V14.01,2013-02-14 00:22:00,
2013-02-13 19:24:00,41.9,40.0,29.72,NNW,333,8.0,14.0,93,0.03,,SKC,0.15,0.00,VWS V14.01,2013-02-14 00:24:00,
2013-02-13 19:25:00,41.9,40.0,29.73,NNW,336,4.0,14.0,93,0.03,,SKC,0.15,0.00,VWS V14.01,2013-02-14 00:25:00,
2013-02-13 19:27:00,41.8,39.4,29.73,WNW,292,5.0,15.0,91,0.03,,SKC,0.15,0.00,VWS V14.01,2013-02-14 00:27:00,
2013-02-13 19:29:00,41.9,38.9,29.73,WNW,292,5.0,15.0,89,0.03,,SKC,0.15,0.00,VWS V14.01,2013-02-14 00:29:00,
2013-02-13 19:30:00,41.9,38.6,29.73,WNW,290,10.0,15.0,88,0.03,,SKC,0.15,0.00,VWS V14.01,2013-02-14 00:30:00,
2013-02-13 19:33:00,41.9,38.0,29.73,NNW,342,9.0,9.0,86,0.00,,SKC,0.15,0.00,VWS V14.01,2013-02-14 00:33:00,
2013-02-13 19:34:00,41.8,37.6,29.73,WNW,298,8.0,16.0,85,0.00,,SKC,0.15,0.00,VWS V14.01,2013-02-14 00:34:00,
2013-02-13 19:35:00,41.8,37.3,29.73,North,349,16.0,16.0,84,0.00,,SKC,0.15,0.00,VWS V14.01,2013-02-14 00:35:00,
2013-02-13 19:39:00,41.8,37.3,29.74,NNW,340,8.0,16.0,84,0.00,,SKC,0.15,0.00,VWS V14.01,2013-02-14 00:39:00,
2013-02-13 19:40:00,41.8,37.0,29.74,WNW,296,7.0,16.0,83,0.00,,SKC,0.15,0.00,VWS V14.01,2013-02-14 00:40:00,
2013-02-13 19:41:00,41.8,37.0,29.74,NW,319,7.0,16.0,83,0.00,,SKC,0.15,0.00,VWS V14.01,2013-02-14 00:41:00,
2013-02-13 19:44:00,41.8,37.0,29.74,NNW,331,6.0,16.0,83,0.00,,SKC,0.15,0.00,VWS V14.01,2013-02-14 00:44:00,
2013-02-13 19:45:00,41.8,37.0,29.74,West,281,4.0,16.0,83,0.00,,SKC,0.15,0.00,VWS V14.01,2013-02-14 00:45:00,
2013-02-13 19:46:00,41.7,36.9,29.74,West,281,4.0,16.0,83,0.00,,SKC,0.15,0.00,VWS V14.01,2013-02-14 00:46:00,
2013-02-13 19:49:00,41.6,36.8,29.74,WNW,301,3.0,16.0,83,0.00,,SKC,0.15,0.00,VWS V14.01,2013-02-14 00:49:00,
2013-02-13 19:50:00,41.5,36.7,29.74,West,267,5.0,16.0,83,0.00,,SKC,0.15,0.00,VWS V14.01,2013-02-14 00:50:00,
2013-02-13 19:51:00,41.4,36.6,29.74,WNW,282,4.0,16.0,83,0.00,,SKC,0.15,0.00,VWS V14.01,2013-02-14 00:51:00,
2013-02-13 19:54:00,41.3,36.5,29.74,WNW,292,3.0,16.0,83,0.00,,SKC,0.15,0.00,VWS V14.01,2013-02-14 00:54:00,
2013-02-13 19:55:00,41.3,36.5,29.74,WNW,292,1.0,16.0,83,0.00,,SKC,0.15,0.00,VWS V14.01,2013-02-14 00:55:00,
2013-02-13 19:56:00,41.2,36.7,29.74,WNW,292,0.0,16.0,84,0.00,,SKC,0.15,0.00,VWS V14.01,2013-02-14 00:56:00,
2013-02-13 19:59:00,41.0,36.2,29.74,WNW,284,4.0,16.0,83,0.00,,SKC,0.15,0.00,VWS V14.01,2013-02-14 00:59:00,
2013-02-13 20:01:00,41.0,35.9,29.74,West,281,2.0,16.0,82,0.00,,SKC,0.15,0.00,VWS V14.01,2013-02-14 01:01:00,
2013-02-13 20:02:00,40.9,35.8,29.74,NW,316,6.0,9.0,82,0.00,,SKC,0.15,0.00,VWS V14.01,2013-02-14 01:02:00,
2013-02-13 20:05:00,40.8,35.4,29.74,West,281,6.0,9.0,81,0.00,,SKC,0.15,0.00,VWS V14.01,2013-02-14 01:05:00,
2013-02-13 20:06:00,40.8,35.4,29.74,NNE,26,8.0,13.0,81,0.00,,SKC,0.15,0.00,VWS V14.01,2013-02-14 01:06:00,
2013-02-13 20:07:00,40.8,35.4,29.74,WNW,283,9.0,15.0,81,0.00,,SKC,0.15,0.00,VWS V14.01,2013-02-14 01:07:00,
2013-02-13 20:10:00,40.8,34.8,29.74,WNW,300,9.0,15.0,79,0.00,,SKC,0.15,0.00,VWS V14.01,2013-02-14 01:10:00,
2013-02-13 20:11:00,40.8,34.8,29.74,WSW,253,2.0,15.0,79,0.00,,SKC,0.15,0.00,VWS V14.01,2013-02-14 01:11:00,
2013-02-13 20:12:00,40.8,34.5,29.75,WSW,252,6.0,15.0,78,0.00,,SKC,0.15,0.00,VWS V14.01,2013-02-14 01:12:00,
2013-02-13 20:15:00,40.9,34.6,29.75,West,261,3.0,15.0,78,0.00,,SKC,0.15,0.00,VWS V14.01,2013-02-14 01:15:00,
2013-02-13 20:16:00,40.8,34.5,29.75,West,270,4.0,15.0,78,0.00,,SKC,0.15,0.00,VWS V14.01,2013-02-14 01:16:00,
2013-02-13 20:17:00,40.8,34.5,29.75,West,279,5.0,15.0,78,0.00,,SKC,0.15,0.00,VWS V14.01,2013-02-14 01:17:00,
2013-02-13 20:20:00,40.7,34.4,29.76,NW,310,2.0,15.0,78,0.00,,SKC,0.15,0.00,VWS V14.01,2013-02-14 01:20:00,
2013-02-13 20:21:00,40.6,34.3,29.76,WSW,257,4.0,15.0,78,0.00,,SKC,0.15,0.00,VWS V14.01,2013-02-14 01:21:00,
2013-02-13 20:22:00,40.6,34.3,29.76,NW,314,4.0,15.0,78,0.00,,SKC,0.15,0.00,VWS V14.01,2013-02-14 01:22:00,
2013-02-13 20:25:00,40.4,33.8,29.75,NW,317,7.0,16.0,77,0.00,,SKC,0.15,0.00,VWS V14.01,2013-02-14 01:25:00,
2013-02-13 20:26:00,40.5,33.9,29.75,NW,322,12.0,16.0,77,0.00,,SKC,0.15,0.00,VWS V14.01,2013-02-14 01:26:00,
2013-02-13 20:27:00,40.5,33.9,29.75,NW,312,14.0,16.0,77,0.00,,SKC,0.15,0.00,VWS V14.01,2013-02-14 01:27:00,
2013-02-13 20:30:00,40.5,33.5,29.76,NNW,333,4.0,17.0,76,0.00,,SKC,0.15,0.00,VWS V14.01,2013-02-14 01:30:00,
2013-02-13 20:31:00,40.5,33.5,29.76,NNE,23,9.0,9.0,76,0.00,,SKC,0.15,0.00,VWS V14.01,2013-02-14 01:31:00,
2013-02-13 20:32:00,40.5,33.5,29.76,NNE,23,9.0,9.0,76,0.00,,SKC,0.15,0.00,VWS V14.01,2013-02-14 01:32:00,
2013-02-13 20:35:00,40.6,33.3,29.76,NW,323,6.0,11.0,75,0.00,,SKC,0.15,0.00,VWS V14.01,2013-02-14 01:35:00,
2013-02-13 20:37:00,40.6,33.3,29.76,WNW,299,10.0,14.0,75,0.00,,SKC,0.15,0.00,VWS V14.01,2013-02-14 01:37:00,
2013-02-13 20:40:00,40.6,33.3,29.77,NNW,348,5.0,15.0,75,0.00,,SKC,0.15,0.00,VWS V14.01,2013-02-14 01:40:00,
2013-02-13 20:42:00,40.6,33.0,29.76,NNW,339,6.0,15.0,74,0.00,,SKC,0.15,0.00,VWS V14.01,2013-02-14 01:42:00,
2013-02-13 20:46:00,40.5,32.9,29.76,NNW,336,12.0,16.0,74,0.00,,SKC,0.15,0.00,VWS V14.01,2013-02-14 01:46:00,
2013-02-13 20:47:00,40.4,32.8,29.76,WNW,299,6.0,16.0,74,0.00,,SKC,0.15,0.00,VWS V14.01,2013-02-14 01:47:00,
2013-02-13 20:48:00,40.4,32.8,29.76,NNW,329,18.0,18.0,74,0.00,,SKC,0.15,0.00,VWS V14.01,2013-02-14 01:48:00,
2013-02-13 20:51:00,40.4,32.4,29.77,NNW,334,13.0,25.0,73,0.00,,SKC,0.15,0.00,VWS V14.01,2013-02-14 01:51:00,
2013-02-13 20:52:00,40.5,32.5,29.77,NNW,332,16.0,25.0,73,0.00,,SKC,0.15,0.00,VWS V14.01,2013-02-14 01:52:00,
2013-02-13 20:53:00,40.5,32.5,29.77,West,273,8.0,25.0,73,0.00,,SKC,0.15,0.00,VWS V14.01,2013-02-14 01:53:00,
2013-02-13 20:56:00,40.4,32.4,29.77,NW,306,8.0,25.0,73,0.00,,SKC,0.15,0.00,VWS V14.01,2013-02-14 01:56:00,
2013-02-13 20:57:00,40.4,32.4,29.77,NW,312,8.0,25.0,73,0.00,,SKC,0.15,0.00,VWS V14.01,2013-02-14 01:57:00,
2013-02-13 20:58:00,40.4,32.4,29.77,NW,325,6.0,25.0,73,0.00,,SKC,0.15,0.00,VWS V14.01,2013-02-14 01:58:00,
2013-02-13 21:01:00,40.3,32.7,29.78,North,355,7.0,7.0,74,0.00,,SKC,0.15,0.00,VWS V14.01,2013-02-14 02:01:00,
2013-02-13 21:02:00,40.2,32.6,29.78,WNW,297,8.0,10.0,74,0.00,,SKC,0.15,0.00,VWS V14.01,2013-02-14 02:02:00,
2013-02-13 21:03:00,40.1,32.5,29.77,NW,315,4.0,10.0,74,0.00,,SKC,0.15,0.00,VWS V14.01,2013-02-14 02:03:00,
2013-02-13 21:06:00,40.0,32.4,29.77,West,277,7.0,14.0,74,0.00,,SKC,0.15,0.00,VWS V14.01,2013-02-14 02:06:00,
2013-02-13 21:07:00,40.0,32.4,29.77,WNW,289,9.0,14.0,74,0.00,,SKC,0.15,0.00,VWS V14.01,2013-02-14 02:07:00,
2013-02-13 21:08:00,40.0,32.4,29.77,NNW,336,5.0,14.0,74,0.00,,SKC,0.15,0.00,VWS V14.01,2013-02-14 02:08:00,
2013-02-13 21:09:00,40.0,32.4,29.77,NNW,341,8.0,14.0,74,0.00,,SKC,0.15,0.00,VWS V14.01,2013-02-14 02:09:00,
2013-02-13 21:11:00,40.0,32.4,29.77,NW,318,5.0,14.0,74,0.00,,SKC,0.15,0.00,VWS V14.01,2013-02-14 02:11:00,
2013-02-13 21:12:00,40.0,32.4,29.78,NNW,336,4.0,14.0,74,0.00,,SKC,0.15,0.00,VWS V14.01,2013-02-14 02:12:00,
2013-02-13 21:13:00,40.0,32.4,29.78,NW,313,7.0,14.0,74,0.00,,SKC,0.15,0.00,VWS V14.01,2013-02-14 02:13:00,
2013-02-13 21:14:00,40.0,32.4,29.78,NW,325,3.0,14.0,74,0.00,,SKC,0.15,0.00,VWS V14.01,2013-02-14 02:14:00,
2013-02-13 21:16:00,40.0,32.1,29.78,NNW,327,6.0,15.0,73,0.00,,SKC,0.15,0.00,VWS V14.01,2013-02-14 02:16:00,
2013-02-13 21:17:00,40.0,32.1,29.78,WNW,300,7.0,15.0,73,0.00,,SKC,0.15,0.00,VWS V14.01,2013-02-14 02:17:00,
2013-02-13 21:18:00,40.1,32.2,29.78,WSW,243,9.0,15.0,73,0.00,,SKC,0.15,0.00,VWS V14.01,2013-02-14 02:18:00,
2013-02-13 21:19:00,40.1,32.2,29.78,WNW,284,3.0,15.0,73,0.00,,SKC,0.15,0.00,VWS V14.01,2013-02-14 02:19:00,
2013-02-13 21:21:00,40.1,32.2,29.78,NNW,336,10.0,15.0,73,0.00,,SKC,0.15,0.00,VWS V14.01,2013-02-14 02:21:00,
2013-02-13 21:22:00,40.1,32.2,29.78,WSW,250,6.0,15.0,73,0.00,,SKC,0.15,0.00,VWS V14.01,2013-02-14 02:22:00,
2013-02-13 21:23:00,40.1,32.2,29.78,NW,306,9.0,15.0,73,0.00,,SKC,0.15,0.00,VWS V14.01,2013-02-14 02:23:00,
2013-02-13 21:24:00,40.1,32.2,29.78,NW,304,6.0,15.0,73,0.00,,SKC,0.15,0.00,VWS V14.01,2013-02-14 02:24:00,
2013-02-13 21:27:00,40.2,31.9,29.78,SW,221,3.0,15.0,72,0.00,,SKC,0.15,0.00,VWS V14.01,2013-02-14 02:27:00,
2013-02-13 21:29:00,40.2,31.9,29.78,NNW,346,11.0,15.0,72,0.00,,SKC,0.15,0.00,VWS V14.01,2013-02-14 02:29:00,
2013-02-13 21:32:00,40.2,31.9,29.79,NNW,337,10.0,10.0,72,0.00,,SKC,0.15,0.00,VWS V14.01,2013-02-14 02:32:00,
2013-02-13 21:34:00,40.2,31.9,29.79,West,261,8.0,13.0,72,0.00,,SKC,0.15,0.00,VWS V14.01,2013-02-14 02:34:00,
2013-02-13 21:37:00,40.1,31.8,29.79,West,273,4.0,13.0,72,0.00,,SKC,0.15,0.00,VWS V14.01,2013-02-14 02:37:00,
2013-02-13 21:39:00,40.1,31.8,29.79,NW,325,13.0,15.0,72,0.00,,SKC,0.15,0.00,VWS V14.01,2013-02-14 02:39:00,
2013-02-13 21:42:00,40.1,32.2,29.78,NNW,335,21.0,21.0,73,0.00,,SKC,0.15,0.00,VWS V14.01,2013-02-14 02:42:00,
2013-02-13 21:43:00,40.1,32.2,29.78,NW,313,9.0,21.0,73,0.00,,SKC,0.15,0.00,VWS V14.01,2013-02-14 02:43:00,
2013-02-13 21:44:00,40.1,31.8,29.79,NW,312,10.0,21.0,72,0.00,,SKC,0.15,0.00,VWS V14.01,2013-02-14 02:44:00,
2013-02-13 21:47:00,40.0,32.1,29.78,NNW,340,11.0,21.0,73,0.00,,SKC,0.15,0.00,VWS V14.01,2013-02-14 02:47:00,
2013-02-13 21:48:00,40.0,32.1,29.78,NW,311,17.0,21.0,73,0.00,,SKC,0.15,0.00,VWS V14.01,2013-02-14 02:48:00,
2013-02-13 21:49:00,40.0,32.1,29.79,NNW,327,11.0,21.0,73,0.00,,SKC,0.15,0.00,VWS V14.01,2013-02-14 02:49:00,
2013-02-13 21:50:00,40.0,32.1,29.79,NNW,345,15.0,21.0,73,0.00,,SKC,0.15,0.00,VWS V14.01,2013-02-14 02:50:00,
2013-02-13 21:52:00,40.0,32.1,29.78,NNW,327,9.0,21.0,73,0.00,,SKC,0.15,0.00,VWS V14.01,2013-02-14 02:52:00,
2013-02-13 21:53:00,40.0,32.1,29.78,NW,309,13.0,21.0,73,0.00,,SKC,0.15,0.00,VWS V14.01,2013-02-14 02:53:00,
2013-02-13 21:55:00,39.9,32.0,29.79,WNW,300,8.0,21.0,73,0.00,,SKC,0.15,0.00,VWS V14.01,2013-02-14 02:55:00,
2013-02-13 21:57:00,39.9,32.0,29.79,NNW,342,9.0,21.0,73,0.00,,SKC,0.15,0.00,VWS V14.01,2013-02-14 02:57:00,
2013-02-13 21:58:00,39.9,32.0,29.78,West,277,7.0,21.0,73,0.00,,SKC,0.15,0.00,VWS V14.01,2013-02-14 02:58:00,
2013-02-13 22:00:00,39.9,32.0,29.79,NW,323,7.0,21.0,73,0.00,,SKC,0.15,0.00,VWS V14.01,2013-02-14 03:00:00,
2013-02-13 22:03:00,39.8,31.9,29.78,NNW,341,11.0,11.0,73,0.00,,SKC,0.15,0.00,VWS V14.01,2013-02-14 03:03:00,
2013-02-13 22:05:00,39.7,31.8,29.79,NW,306,7.0,19.0,73,0.00,,SKC,0.15,0.00,VWS V14.01,2013-02-14 03:05:00,
2013-02-13 22:08:00,39.8,31.9,29.78,NNW,346,12.0,19.0,73,0.00,,SKC,0.15,0.00,VWS V14.01,2013-02-14 03:08:00,
2013-02-13 22:10:00,39.7,31.8,29.79,West,259,10.0,19.0,73,0.00,,SKC,0.15,0.00,VWS V14.01,2013-02-14 03:10:00,
2013-02-13 22:13:00,39.7,31.8,29.79,NW,313,8.0,19.0,73,0.00,,SKC,0.15,0.00,VWS V14.01,2013-02-14 03:13:00,
2013-02-13 22:14:00,39.7,31.8,29.79,NNW,329,5.0,19.0,73,0.00,,SKC,0.15,0.00,VWS V14.01,2013-02-14 03:14:00,
2013-02-13 22:15:00,39.7,31.8,29.79,NNW,331,5.0,19.0,73,0.00,,SKC,0.15,0.00,VWS V14.01,2013-02-14 03:15:00,
2013-02-13 22:18:00,39.7,32.1,29.79,North,355,13.0,19.0,74,0.00,,SKC,0.15,0.00,VWS V14.01,2013-02-14 03:18:00,
2013-02-13 22:19:00,39.7,32.1,29.79,NNW,331,8.0,19.0,74,0.00,,SKC,0.15,0.00,VWS V14.01,2013-02-14 03:19:00,
2013-02-13 22:20:00,39.7,32.1,29.80,NNW,347,4.0,19.0,74,0.00,,SKC,0.15,0.00,VWS V14.01,2013-02-14 03:20:00,
2013-02-13 22:23:00,39.6,32.0,29.80,NW,326,4.0,19.0,74,0.00,,SKC,0.15,0.00,VWS V14.01,2013-02-14 03:23:00,
2013-02-13 22:24:00,39.6,32.0,29.80,NNE,28,7.0,19.0,74,0.00,,SKC,0.15,0.00,VWS V14.01,2013-02-14 03:24:00,
2013-02-13 22:25:00,39.5,31.9,29.80,WNW,292,6.0,19.0,74,0.00,,SKC,0.15,0.00,VWS V14.01,2013-02-14 03:25:00,
2013-02-13 22:28:00,39.5,31.9,29.81,NNW,327,7.0,19.0,74,0.00,,SKC,0.15,0.00,VWS V14.01,2013-02-14 03:28:00,
2013-02-13 22:29:00,39.5,31.9,29.81,North,355,4.0,19.0,74,0.00,,SKC,0.15,0.00,VWS V14.01,2013-02-14 03:29:00,
2013-02-13 22:30:00,39.5,31.9,29.81,North,355,6.0,19.0,74,0.00,,SKC,0.15,0.00,VWS V14.01,2013-02-14 03:30:00,
2013-02-13 22:31:00,39.5,31.9,29.81,NNW,348,6.0,19.0,74,0.00,,SKC,0.15,0.00,VWS V14.01,2013-02-14 03:31:00,
2013-02-13 22:33:00,39.5,31.9,29.81,WNW,286,1.0,9.0,74,0.00,,SKC,0.15,0.00,VWS V14.01,2013-02-14 03:33:00,
2013-02-13 22:34:00,39.5,31.9,29.81,NW,321,4.0,9.0,74,0.00,,SKC,0.15,0.00,VWS V14.01,2013-02-14 03:34:00,
2013-02-13 22:36:00,39.5,31.9,29.81,NNW,342,2.0,9.0,74,0.00,,SKC,0.15,0.00,VWS V14.01,2013-02-14 03:36:00,
2013-02-13 22:38:00,39.5,31.9,29.81,NNW,336,7.0,9.0,74,0.00,,SKC,0.15,0.00,VWS V14.01,2013-02-14 03:38:00,
2013-02-13 22:39:00,39.4,31.8,29.81,NNW,338,6.0,9.0,74,0.00,,SKC,0.15,0.00,VWS V14.01,2013-02-14 03:39:00,
2013-02-13 22:41:00,39.4,31.8,29.81,NW,326,7.0,9.0,74,0.00,,SKC,0.15,0.00,VWS V14.01,2013-02-14 03:41:00,
2013-02-13 22:43:00,39.4,31.8,29.81,West,276,4.0,11.0,74,0.00,,SKC,0.15,0.00,VWS V14.01,2013-02-14 03:43:00,
2013-02-13 22:44:00,39.4,31.8,29.81,NW,311,9.0,11.0,74,0.00,,SKC,0.15,0.00,VWS V14.01,2013-02-14 03:44:00,
2013-02-13 22:46:00,39.4,31.8,29.81,NW,326,2.0,11.0,74,0.00,,SKC,0.15,0.00,VWS V14.01,2013-02-14 03:46:00,
2013-02-13 22:47:00,39.4,31.8,29.81,West,272,8.0,11.0,74,0.00,,SKC,0.15,0.00,VWS V14.01,2013-02-14 03:47:00,
2013-02-13 22:48:00,39.5,31.9,29.81,WNW,296,9.0,11.0,74,0.00,,SKC,0.15,0.00,VWS V14.01,2013-02-14 03:48:00,
2013-02-13 22:49:00,39.4,31.8,29.81,NW,305,6.0,11.0,74,0.00,,SKC,0.15,0.00,VWS V14.01,2013-02-14 03:49:00,
2013-02-13 22:51:00,39.4,31.8,29.82,WNW,302,2.0,11.0,74,0.00,,SKC,0.15,0.00,VWS V14.01,2013-02-14 03:51:00,
2013-02-13 22:52:00,39.4,31.8,29.82,NNW,328,6.0,11.0,74,0.00,,SKC,0.15,0.00,VWS V14.01,2013-02-14 03:52:00,
2013-02-13 22:54:00,39.4,31.8,29.82,NNW,338,2.0,11.0,74,0.00,,SKC,0.15,0.00,VWS V14.01,2013-02-14 03:54:00,
2013-02-13 22:56:00,39.3,31.7,29.82,NNW,330,4.0,11.0,74,0.00,,SKC,0.15,0.00,VWS V14.01,2013-02-14 03:56:00,
2013-02-13 22:57:00,39.3,31.7,29.82,NW,311,4.0,11.0,74,0.00,,SKC,0.15,0.00,VWS V14.01,2013-02-14 03:57:00,
2013-02-13 22:59:00,39.3,31.7,29.82,WNW,288,5.0,11.0,74,0.00,,SKC,0.15,0.00,VWS V14.01,2013-02-14 03:59:00,
2013-02-13 23:00:00,39.3,31.7,29.82,South,182,3.0,11.0,74,0.00,,SKC,0.15,0.00,VWS V14.01,2013-02-14 04:00:00,
2013-02-13 23:01:00,39.2,32.0,29.82,SW,217,3.0,3.0,75,0.00,,SKC,0.15,0.00,VWS V14.01,2013-02-14 04:01:00,
2013-02-13 23:02:00,39.1,31.9,29.82,SW,221,3.0,4.0,75,0.00,,SKC,0.15,0.00,VWS V14.01,2013-02-14 04:02:00,
2013-02-13 23:04:00,38.9,31.7,29.82,NW,324,10.0,10.0,75,0.00,,SKC,0.15,0.00,VWS V14.01,2013-02-14 04:04:00,
2013-02-13 23:05:00,38.9,31.7,29.82,WNW,295,5.0,10.0,75,0.00,,SKC,0.15,0.00,VWS V14.01,2013-02-14 04:05:00,
2013-02-13 23:06:00,39.0,31.8,29.82,WSW,249,3.0,10.0,75,0.00,,SKC,0.15,0.00,VWS V14.01,2013-02-14 04:06:00,
2013-02-13 23:08:00,39.1,31.9,29.83,West,271,0.0,10.0,75,0.00,,SKC,0.15,0.00,VWS V14.01,2013-02-14 04:08:00,
2013-02-13 23:09:00,39.1,31.9,29.83,NNE,27,3.0,10.0,75,0.00,,SKC,0.15,0.00,VWS V14.01,2013-02-14 04:09:00,
2013-02-13 23:11:00,39.1,31.9,29.83,NNW,338,6.0,10.0,75,0.00,,SKC,0.15,0.00,VWS V14.01,2013-02-14 04:11:00,
2013-02-13 23:13:00,39.1,31.9,29.83,WNW,297,2.0,10.0,75,0.00,,SKC,0.15,0.00,VWS V14.01,2013-02-14 04:13:00,
2013-02-13 23:14:00,39.2,32.0,29.83,WNW,283,3.0,10.0,75,0.00,,SKC,0.15,0.00,VWS V14.01,2013-02-14 04:14:00,
2013-02-13 23:16:00,39.2,32.0,29.83,WNW,285,1.0,10.0,75,0.00,,SKC,0.15,0.00,VWS V14.01,2013-02-14 04:16:00,
2013-02-13 23:18:00,39.1,31.9,29.83,NNW,333,6.0,10.0,75,0.00,,SKC,0.15,0.00,VWS V14.01,2013-02-14 04:18:00,
2013-02-13 23:19:00,39.2,32.0,29.83,West,271,4.0,10.0,75,0.00,,SKC,0.15,0.00,VWS V14.01,2013-02-14 04:19:00,
2013-02-13 23:21:00,39.2,32.0,29.83,NNW,348,4.0,10.0,75,0.00,,SKC,0.15,0.00,VWS V14.01,2013-02-14 04:21:00,
2013-02-13 23:23:00,39.3,32.0,29.83,WNW,290,6.0,10.0,75,0.00,,SKC,0.15,0.00,VWS V14.01,2013-02-14 04:23:00,
2013-02-13 23:24:00,39.3,31.7,29.83,West,267,8.0,13.0,74,0.00,,SKC,0.15,0.00,VWS V14.01,2013-02-14 04:24:00,
2013-02-13 23:26:00,39.3,31.7,29.83,NNW,335,1.0,13.0,74,0.00,,SKC,0.15,0.00,VWS V14.01,2013-02-14 04:26:00,
2013-02-13 23:27:00,39.4,31.8,29.83,SW,236,3.0,13.0,74,0.00,,SKC,0.15,0.00,VWS V14.01,2013-02-14 04:27:00,
2013-02-13 23:28:00,39.3,31.7,29.83,WNW,294,3.0,13.0,74,0.00,,SKC,0.15,0.00,VWS V14.01,2013-02-14 04:28:00,
2013-02-13 23:30:00,39.3,32.0,29.83,NW,323,0.0,13.0,75,0.00,,SKC,0.15,0.00,VWS V14.01,2013-02-14 04:30:00,
2013-02-13 23:31:00,39.3,31.7,29.83,NNW,333,5.0,5.0,74,0.00,,SKC,0.15,0.00,VWS V14.01,2013-02-14 04:31:00,
2013-02-13 23:32:00,39.3,31.7,29.83,NNW,344,1.0,5.0,74,0.00,,SKC,0.15,0.00,VWS V14.01,2013-02-14 04:32:00,
2013-02-13 23:33:00,39.3,31.7,29.83,North,355,0.0,5.0,74,0.00,,SKC,0.15,0.00,VWS V14.01,2013-02-14 04:33:00,
2013-02-13 23:35:00,39.3,31.7,29.83,West,268,2.0,5.0,74,0.00,,SKC,0.15,0.00,VWS V14.01,2013-02-14 04:35:00,
2013-02-13 23:36:00,39.2,32.0,29.84,West,268,0.0,5.0,75,0.00,,SKC,0.15,0.00,VWS V14.01,2013-02-14 04:36:00,
2013-02-13 23:37:00,39.2,32.0,29.84,West,259,3.0,5.0,75,0.00,,SKC,0.15,0.00,VWS V14.01,2013-02-14 04:37:00,
2013-02-13 23:39:00,39.2,32.0,29.84,West,275,2.0,5.0,75,0.00,,SKC,0.15,0.00,VWS V14.01,2013-02-14 04:39:00,
2013-02-13 23:40:00,39.2,32.0,29.84,NNW,343,5.0,5.0,75,0.00,,SKC,0.15,0.00,VWS V14.01,2013-02-14 04:40:00,
2013-02-13 23:41:00,39.2,32.0,29.84,WNW,288,6.0,9.0,75,0.00,,SKC,0.15,0.00,VWS V14.01,2013-02-14 04:41:00,
2013-02-13 23:42:00,39.2,32.0,29.84,West,259,4.0,9.0,75,0.00,,SKC,0.15,0.00,VWS V14.01,2013-02-14 04:42:00,
2013-02-13 23:44:00,39.3,32.0,29.84,NW,317,3.0,9.0,75,0.00,,SKC,0.15,0.00,VWS V14.01,2013-02-14 04:44:00,
2013-02-13 23:45:00,39.3,31.7,29.84,NNW,329,3.0,9.0,74,0.00,,SKC,0.15,0.00,VWS V14.01,2013-02-14 04:45:00,
2013-02-13 23:46:00,39.4,31.8,29.84,NW,313,1.0,9.0,74,0.00,,SKC,0.15,0.00,VWS V14.01,2013-02-14 04:46:00,
2013-02-13 23:47:00,39.4,31.8,29.84,West,277,4.0,9.0,74,0.00,,SKC,0.15,0.00,VWS V14.01,2013-02-14 04:47:00,
2013-02-13 23:49:00,39.4,32.2,29.84,West,275,4.0,9.0,75,0.00,,SKC,0.15,0.00,VWS V14.01,2013-02-14 04:49:00,
2013-02-13 23:50:00,39.5,32.2,29.84,NW,305,5.0,9.0,75,0.00,,SKC,0.15,0.00,VWS V14.01,2013-02-14 04:50:00,
2013-02-13 23:52:00,39.5,32.2,29.84,WNW,298,6.0,10.0,75,0.00,,SKC,0.15,0.00,VWS V14.01,2013-02-14 04:52:00,
2013-02-13 23:54:00,39.6,32.0,29.84,West,261,1.0,10.0,74,0.00,,SKC,0.15,0.00,VWS V14.01,2013-02-14 04:54:00,
2013-02-13 23:55:00,39.6,32.0,29.84,NW,313,3.0,10.0,74,0.00,,SKC,0.15,0.00,VWS V14.01,2013-02-14 04:55:00,
2013-02-13 23:57:00,39.6,32.3,29.84,NW,313,3.0,10.0,75,0.00,,SKC,0.15,0.00,VWS V14.01,2013-02-14 04:57:00,
2013-02-13 23:59:00,39.6,32.0,29.84,NNW,344,7.0,11.0,74,0.00,,SKC,0.15,0.00,VWS V14.01,2013-02-14 04:59:00,